Time,TemperatureF,DewpointF,PressureIn,WindDirection,WindDirectionDegrees,WindSpeedMPH,WindSpeedGustMPH,Humidity,HourlyPrecipIn,Conditions,Clouds,dailyrainin,SoftwareType,DateUTC
2013-03-10 00:00:00,33.2,31.9,29.79,West,267,3.0,3.0,95,0.00,,,0.63,Wunderground v.1.13,2013-03-10 06:00:00,
2013-03-10 00:01:00,33.2,31.9,29.79,West,267,3.0,3.0,95,0.00,,,0.63,Wunderground v.1.13,2013-03-10 06:01:00,
2013-03-10 00:04:00,33.2,31.9,29.78,WNW,291,2.0,3.0,95,0.00,,,0.00,Wunderground v.1.13,2013-03-10 06:04:00,
2013-03-10 00:05:00,33.2,31.9,29.78,WNW,291,2.0,2.0,95,0.00,,,0.00,Wunderground v.1.13,2013-03-10 06:05:00,
2013-03-10 00:08:00,33.2,31.9,29.78,NW,318,1.0,2.0,95,0.00,,,0.00,Wunderground v.1.13,2013-03-10 06:08:00,
2013-03-10 00:10:00,33.2,31.9,29.78,NW,318,1.0,1.0,95,0.00,,,0.00,Wunderground v.1.13,2013-03-10 06:10:00,
2013-03-10 00:14:00,33.2,31.9,29.78,NNW,331,1.0,3.0,95,0.00,,,0.00,Wunderground v.1.13,2013-03-10 06:14:00,
2013-03-10 00:17:00,33.2,31.9,29.78,WNW,290,1.0,5.0,95,0.00,,,0.00,Wunderground v.1.13,2013-03-10 06:17:00,
2013-03-10 00:18:00,33.2,31.9,29.78,WNW,290,1.0,5.0,95,0.00,,,0.00,Wunderground v.1.13,2013-03-10 06:18:00,
2013-03-10 00:20:00,33.2,31.9,29.78,West,274,2.0,2.0,95,0.00,,,0.00,Wunderground v.1.13,2013-03-10 06:20:00,
2013-03-10 00:22:00,33.2,31.9,29.78,West,275,2.0,5.0,95,0.00,,,0.00,Wunderground v.1.13,2013-03-10 06:22:00,
2013-03-10 00:25:00,33.2,31.9,29.78,West,274,2.0,5.0,95,0.00,,,0.00,Wunderground v.1.13,2013-03-10 06:25:00,
2013-03-10 00:26:00,33.2,31.9,29.78,West,273,2.0,5.0,95,0.00,,,0.00,Wunderground v.1.13,2013-03-10 06:26:00,
2013-03-10 00:30:00,33.2,31.9,29.79,West,274,2.0,4.0,95,0.00,,,0.00,Wunderground v.1.13,2013-03-10 06:30:00,
2013-03-10 00:32:00,33.2,31.9,29.79,West,274,2.0,4.0,95,0.00,,,0.00,Wunderground v.1.13,2013-03-10 06:32:00,
2013-03-10 00:34:00,33.1,31.8,29.78,West,274,2.0,4.0,95,0.00,,,0.00,Wunderground v.1.13,2013-03-10 06:34:00,
2013-03-10 00:37:00,33.2,31.9,29.77,NW,315,2.0,6.0,95,0.00,,,0.00,Wunderground v.1.13,2013-03-10 06:37:00,
2013-03-10 00:39:00,33.2,31.9,29.77,NW,305,2.0,6.0,95,0.00,,,0.00,Wunderground v.1.13,2013-03-10 06:39:00,
2013-03-10 00:40:00,33.1,31.8,29.77,WNW,300,2.0,5.0,95,0.00,,,0.00,Wunderground v.1.13,2013-03-10 06:40:00,
2013-03-10 00:41:00,33.1,31.8,29.77,NW,325,2.0,5.0,95,0.00,,,0.00,Wunderground v.1.13,2013-03-10 06:41:00,
2013-03-10 00:43:00,33.2,31.9,29.77,NW,306,2.0,5.0,95,0.00,,,0.00,Wunderground v.1.13,2013-03-10 06:43:00,
2013-03-10 00:48:00,33.1,31.8,29.77,NW,318,2.0,3.0,95,0.00,,,0.00,Wunderground v.1.13,2013-03-10 06:48:00,
2013-03-10 00:49:00,33.1,31.8,29.77,NW,318,2.0,3.0,95,0.00,,,0.00,Wunderground v.1.13,2013-03-10 06:49:00,
2013-03-10 00:51:00,33.1,31.8,29.78,West,280,2.0,6.0,95,0.00,,,0.00,Wunderground v.1.13,2013-03-10 06:51:00,
2013-03-10 00:54:00,33.1,31.8,29.78,WNW,290,3.0,7.0,95,0.00,,,0.00,Wunderground v.1.13,2013-03-10 06:54:00,
2013-03-10 00:58:00,33.2,31.9,29.78,WNW,295,3.0,5.0,95,0.00,,,0.00,Wunderground v.1.13,2013-03-10 06:58:00,
2013-03-10 01:00:00,33.2,31.9,29.78,West,261,3.0,6.0,95,0.00,,,0.00,Wunderground v.1.13,2013-03-10 07:00:00,
2013-03-10 01:01:00,33.2,31.9,29.78,West,265,4.0,6.0,95,0.00,,,0.00,Wunderground v.1.13,2013-03-10 07:01:00,
2013-03-10 01:07:00,33.2,31.9,29.78,NW,314,3.0,6.0,95,0.00,,,0.00,Wunderground v.1.13,2013-03-10 07:07:00,
2013-03-10 01:09:00,33.2,31.9,29.78,WNW,302,3.0,6.0,95,0.00,,,0.00,Wunderground v.1.13,2013-03-10 07:09:00,
2013-03-10 01:10:00,33.2,31.9,29.78,WNW,302,3.0,3.0,95,0.00,,,0.00,Wunderground v.1.13,2013-03-10 07:10:00,
2013-03-10 01:15:00,33.2,31.9,29.78,NNW,340,3.0,6.0,95,0.00,,,0.00,Wunderground v.1.13,2013-03-10 07:15:00,
2013-03-10 01:16:00,33.2,31.9,29.77,WNW,302,3.0,6.0,95,0.00,,,0.00,Wunderground v.1.13,2013-03-10 07:16:00,
2013-03-10 01:17:00,33.2,31.9,29.77,NW,305,3.0,6.0,95,0.00,,,0.00,Wunderground v.1.13,2013-03-10 07:17:00,
2013-03-10 01:22:00,33.2,31.9,29.78,WNW,292,3.0,4.0,95,0.00,,,0.00,Wunderground v.1.13,2013-03-10 07:22:00,
2013-03-10 01:23:00,33.2,31.9,29.78,NNW,329,3.0,4.0,95,0.00,,,0.00,Wunderground v.1.13,2013-03-10 07:23:00,
2013-03-10 01:28:00,33.2,31.9,29.77,WNW,299,2.0,5.0,95,0.00,,,0.00,Wunderground v.1.13,2013-03-10 07:28:00,
2013-03-10 01:29:00,33.2,31.9,29.78,WNW,295,3.0,5.0,95,0.00,,,0.00,Wunderground v.1.13,2013-03-10 07:29:00,
2013-03-10 01:31:00,33.2,31.9,29.78,WNW,295,2.0,3.0,95,0.00,,,0.00,Wunderground v.1.13,2013-03-10 07:31:00,
2013-03-10 01:34:00,33.2,31.9,29.78,WNW,287,3.0,7.0,95,0.00,,,0.00,Wunderground v.1.13,2013-03-10 07:34:00,
2013-03-10 01:35:00,33.2,31.9,29.78,NNW,327,3.0,4.0,95,0.00,,,0.00,Wunderground v.1.13,2013-03-10 07:35:00,
2013-03-10 01:36:00,33.2,31.9,29.79,WNW,286,3.0,4.0,95,0.00,,,0.00,Wunderground v.1.13,2013-03-10 07:36:00,
2013-03-10 01:37:00,33.2,31.9,29.78,WNW,286,3.0,4.0,95,0.00,,,0.00,Wunderground v.1.13,2013-03-10 07:37:00,
2013-03-10 01:41:00,33.2,31.9,29.79,WNW,286,3.0,4.0,95,0.00,,,0.00,Wunderground v.1.13,2013-03-10 07:41:00,
2013-03-10 01:42:00,33.2,31.9,29.79,WNW,290,3.0,4.0,95,0.00,,,0.00,Wunderground v.1.13,2013-03-10 07:42:00,
2013-03-10 01:43:00,33.3,32.0,29.79,WNW,290,2.0,4.0,95,0.00,,,0.00,Wunderground v.1.13,2013-03-10 07:43:00,
2013-03-10 01:47:00,33.2,31.7,29.79,West,279,3.0,4.0,94,0.00,,,0.00,Wunderground v.1.13,2013-03-10 07:47:00,
2013-03-10 01:49:00,33.3,31.8,29.79,WNW,292,3.0,4.0,94,0.00,,,0.00,Wunderground v.1.13,2013-03-10 07:49:00,
2013-03-10 01:54:00,33.2,31.7,29.79,NNW,334,3.0,6.0,94,0.00,,,0.00,Wunderground v.1.13,2013-03-10 07:54:00,
2013-03-10 01:55:00,33.2,31.7,29.79,WNW,301,3.0,6.0,94,0.00,,,0.00,Wunderground v.1.13,2013-03-10 07:55:00,
2013-03-10 01:59:00,33.2,31.7,29.79,WNW,290,4.0,8.0,94,0.00,,,0.00,Wunderground v.1.13,2013-03-10 07:59:00,
2013-03-10 03:01:00,33.2,31.7,29.79,North,355,5.0,5.0,94,0.00,,,0.00,Wunderground v.1.13,2013-03-10 08:01:00,
2013-03-10 03:05:00,33.2,31.7,29.79,NW,311,5.0,5.0,94,0.00,,,0.00,Wunderground v.1.13,2013-03-10 08:05:00,
2013-03-10 03:06:00,33.2,31.7,29.79,NNE,14,5.0,5.0,94,0.00,,,0.00,Wunderground v.1.13,2013-03-10 08:06:00,
2013-03-10 03:11:00,33.2,31.7,29.79,NW,315,5.0,5.0,94,0.00,,,0.00,Wunderground v.1.13,2013-03-10 08:11:00,
2013-03-10 03:15:00,33.2,31.7,29.79,WNW,303,4.0,4.0,94,0.00,,,0.00,Wunderground v.1.13,2013-03-10 08:15:00,
2013-03-10 03:17:00,33.2,31.7,29.79,North,355,4.0,8.0,94,0.00,,,0.00,Wunderground v.1.13,2013-03-10 08:17:00,
2013-03-10 03:18:00,33.2,31.7,29.79,NW,314,4.0,8.0,94,0.00,,,0.00,Wunderground v.1.13,2013-03-10 08:18:00,
2013-03-10 03:20:00,33.2,31.4,29.79,NNE,18,4.0,4.0,93,0.00,,,0.00,Wunderground v.1.13,2013-03-10 08:20:00,
2013-03-10 03:22:00,33.2,31.4,29.79,NW,322,4.0,4.0,93,0.00,,,0.00,Wunderground v.1.13,2013-03-10 08:22:00,
2013-03-10 03:25:00,33.2,31.4,29.79,NNW,342,5.0,8.0,93,0.00,,,0.00,Wunderground v.1.13,2013-03-10 08:25:00,
2013-03-10 03:28:00,33.2,31.4,29.79,North,5,5.0,8.0,93,0.00,,,0.00,Wunderground v.1.13,2013-03-10 08:28:00,
2013-03-10 03:29:00,33.3,31.5,29.80,West,266,5.0,8.0,93,0.00,,,0.00,Wunderground v.1.13,2013-03-10 08:29:00,
2013-03-10 03:30:00,33.3,31.5,29.80,North,9,5.0,5.0,93,0.00,,,0.00,Wunderground v.1.13,2013-03-10 08:30:00,
2013-03-10 03:33:00,33.3,31.5,29.80,NW,306,5.0,5.0,93,0.00,,,0.00,Wunderground v.1.13,2013-03-10 08:33:00,
2013-03-10 03:36:00,33.3,31.2,29.80,NNE,30,3.0,4.0,92,0.00,,,0.00,Wunderground v.1.13,2013-03-10 08:36:00,
2013-03-10 03:38:00,33.3,31.2,29.80,West,276,3.0,5.0,92,0.00,,,0.00,Wunderground v.1.13,2013-03-10 08:38:00,
2013-03-10 03:39:00,33.3,31.2,29.80,WNW,289,3.0,5.0,92,0.00,,,0.00,Wunderground v.1.13,2013-03-10 08:39:00,
2013-03-10 03:41:00,33.3,31.2,29.80,NW,307,3.0,3.0,92,0.00,,,0.00,Wunderground v.1.13,2013-03-10 08:41:00,
2013-03-10 03:44:00,33.3,31.2,29.80,NW,319,3.0,12.0,92,0.00,,,0.00,Wunderground v.1.13,2013-03-10 08:44:00,
2013-03-10 03:48:00,33.3,31.2,29.79,West,275,4.0,7.0,92,0.00,,,0.00,Wunderground v.1.13,2013-03-10 08:48:00,
2013-03-10 03:49:00,33.3,31.0,29.79,NW,312,5.0,7.0,91,0.00,,,0.00,Wunderground v.1.13,2013-03-10 08:49:00,
2013-03-10 03:51:00,33.3,31.0,29.79,NW,318,5.0,5.0,91,0.00,,,0.00,Wunderground v.1.13,2013-03-10 08:51:00,
2013-03-10 03:55:00,33.3,31.0,29.79,NW,318,5.0,5.0,91,0.00,,,0.00,Wunderground v.1.13,2013-03-10 08:55:00,
2013-03-10 03:57:00,33.3,31.0,29.79,NNW,329,5.0,5.0,91,0.00,,,0.00,Wunderground v.1.13,2013-03-10 08:57:00,
2013-03-10 03:58:00,33.3,31.0,29.80,NNW,329,5.0,5.0,91,0.00,,,0.00,Wunderground v.1.13,2013-03-10 08:58:00,
2013-03-10 04:03:00,33.3,30.7,29.80,NW,321,4.0,6.0,90,0.00,,,0.00,Wunderground v.1.13,2013-03-10 09:03:00,
2013-03-10 04:05:00,33.3,30.7,29.80,West,263,4.0,4.0,90,0.00,,,0.00,Wunderground v.1.13,2013-03-10 09:05:00,
2013-03-10 04:07:00,33.3,30.7,29.80,NNE,21,5.0,8.0,90,0.00,,,0.00,Wunderground v.1.13,2013-03-10 09:07:00,
2013-03-10 04:08:00,33.3,30.7,29.80,NNW,348,5.0,8.0,90,0.00,,,0.00,Wunderground v.1.13,2013-03-10 09:08:00,
2013-03-10 04:13:00,33.4,30.5,29.80,North,355,6.0,7.0,89,0.00,,,0.00,Wunderground v.1.13,2013-03-10 09:13:00,
2013-03-10 04:14:00,33.4,30.5,29.80,West,281,5.0,8.0,89,0.00,,,0.00,Wunderground v.1.13,2013-03-10 09:14:00,
2013-03-10 04:15:00,33.4,30.5,29.80,NW,310,5.0,5.0,89,0.00,,,0.00,Wunderground v.1.13,2013-03-10 09:15:00,
2013-03-10 04:18:00,33.3,30.4,29.80,NNE,14,4.0,7.0,89,0.00,,,0.00,Wunderground v.1.13,2013-03-10 09:18:00,
2013-03-10 04:20:00,33.3,30.4,29.80,NNW,338,4.0,7.0,89,0.00,,,0.00,Wunderground v.1.13,2013-03-10 09:20:00,
2013-03-10 04:21:00,33.3,30.4,29.80,NNE,12,4.0,7.0,89,0.00,,,0.00,Wunderground v.1.13,2013-03-10 09:21:00,
2013-03-10 04:22:00,33.3,30.4,29.80,NW,310,4.0,7.0,89,0.00,,,0.00,Wunderground v.1.13,2013-03-10 09:22:00,
2013-03-10 04:25:00,33.3,30.4,29.80,NNW,337,4.0,4.0,89,0.00,,,0.00,Wunderground v.1.13,2013-03-10 09:25:00,
2013-03-10 04:27:00,33.3,30.4,29.80,West,280,4.0,11.0,89,0.00,,,0.00,Wunderground v.1.13,2013-03-10 09:27:00,
2013-03-10 04:28:00,33.3,30.4,29.80,NNW,336,5.0,11.0,89,0.00,,,0.00,Wunderground v.1.13,2013-03-10 09:28:00,
2013-03-10 04:30:00,33.2,30.3,29.80,North,350,4.0,5.0,89,0.00,,,0.00,Wunderground v.1.13,2013-03-10 09:30:00,
2013-03-10 04:34:00,33.2,30.3,29.80,NW,311,5.0,7.0,89,0.00,,,0.00,Wunderground v.1.13,2013-03-10 09:34:00,
2013-03-10 04:36:00,33.2,30.3,29.80,WNW,299,5.0,6.0,89,0.00,,,0.00,Wunderground v.1.13,2013-03-10 09:36:00,
2013-03-10 04:38:00,33.2,30.3,29.80,North,351,5.0,8.0,89,0.00,,,0.00,Wunderground v.1.13,2013-03-10 09:38:00,
2013-03-10 04:41:00,33.1,30.2,29.81,WNW,286,4.0,5.0,89,0.00,,,0.00,Wunderground v.1.13,2013-03-10 09:41:00,
2013-03-10 04:46:00,33.1,30.2,29.81,NW,307,4.0,4.0,89,0.00,,,0.00,Wunderground v.1.13,2013-03-10 09:46:00,
2013-03-10 04:47:00,33.1,30.2,29.81,NW,311,4.0,4.0,89,0.00,,,0.00,Wunderground v.1.13,2013-03-10 09:47:00,
2013-03-10 04:48:00,33.1,30.2,29.81,NW,311,4.0,4.0,89,0.00,,,0.00,Wunderground v.1.13,2013-03-10 09:48:00,
2013-03-10 04:49:00,33.1,30.2,29.81,NW,306,4.0,4.0,89,0.00,,,0.00,Wunderground v.1.13,2013-03-10 09:49:00,
2013-03-10 04:52:00,33.0,30.1,29.81,NNW,348,4.0,5.0,89,0.00,,,0.00,Wunderground v.1.13,2013-03-10 09:52:00,
2013-03-10 04:54:00,33.0,30.1,29.81,NNW,342,4.0,5.0,89,0.00,,,0.00,Wunderground v.1.13,2013-03-10 09:54:00,
2013-03-10 04:56:00,33.0,30.1,29.81,WNW,303,3.0,5.0,89,0.00,,,0.00,Wunderground v.1.13,2013-03-10 09:56:00,
2013-03-10 04:58:00,33.0,30.1,29.82,NW,310,4.0,5.0,89,0.00,,,0.00,Wunderground v.1.13,2013-03-10 09:58:00,
2013-03-10 05:00:00,33.0,30.1,29.81,North,349,4.0,7.0,89,0.00,,,0.00,Wunderground v.1.13,2013-03-10 10:00:00,
2013-03-10 05:03:00,33.0,30.1,29.81,NNW,338,4.0,7.0,89,0.00,,,0.00,Wunderground v.1.13,2013-03-10 10:03:00,
2013-03-10 05:05:00,33.0,30.1,29.81,NNE,22,4.0,8.0,89,0.00,,,0.00,Wunderground v.1.13,2013-03-10 10:05:00,
2013-03-10 05:08:00,33.0,30.1,29.82,NNW,331,4.0,8.0,89,0.00,,,0.00,Wunderground v.1.13,2013-03-10 10:08:00,
2013-03-10 05:12:00,33.1,29.9,29.81,North,360,6.0,9.0,88,0.00,,,0.00,Wunderground v.1.13,2013-03-10 10:12:00,
2013-03-10 05:13:00,33.1,29.9,29.81,North,355,7.0,9.0,88,0.00,,,0.00,Wunderground v.1.13,2013-03-10 10:13:00,
2013-03-10 05:15:00,33.1,29.9,29.81,NNE,30,7.0,7.0,88,0.00,,,0.00,Wunderground v.1.13,2013-03-10 10:15:00,
2013-03-10 05:19:00,33.1,29.9,29.81,North,5,6.0,8.0,88,0.00,,,0.00,Wunderground v.1.13,2013-03-10 10:19:00,
2013-03-10 05:20:00,33.2,30.0,29.81,North,360,5.0,5.0,88,0.00,,,0.00,Wunderground v.1.13,2013-03-10 10:20:00,
2013-03-10 05:22:00,33.1,29.9,29.81,NNE,31,5.0,7.0,88,0.00,,,0.00,Wunderground v.1.13,2013-03-10 10:22:00,
2013-03-10 05:23:00,33.1,29.9,29.81,North,5,5.0,8.0,88,0.00,,,0.00,Wunderground v.1.13,2013-03-10 10:23:00,
2013-03-10 05:26:00,33.1,29.7,29.82,NNW,331,5.0,6.0,87,0.00,,,0.00,Wunderground v.1.13,2013-03-10 10:26:00,
2013-03-10 05:31:00,33.1,29.7,29.82,WNW,285,6.0,6.0,87,0.00,,,0.00,Wunderground v.1.13,2013-03-10 10:31:00,
2013-03-10 05:32:00,33.1,29.7,29.82,NNE,21,6.0,8.0,87,0.00,,,0.00,Wunderground v.1.13,2013-03-10 10:32:00,
2013-03-10 05:35:00,33.1,29.7,29.82,WNW,292,7.0,7.0,87,0.00,,,0.00,Wunderground v.1.13,2013-03-10 10:35:00,
2013-03-10 05:38:00,33.1,29.7,29.83,WNW,301,6.0,16.0,87,0.00,,,0.00,Wunderground v.1.13,2013-03-10 10:38:00,
2013-03-10 05:40:00,33.1,29.7,29.82,NNE,19,7.0,7.0,87,0.00,,,0.00,Wunderground v.1.13,2013-03-10 10:40:00,
2013-03-10 05:41:00,33.1,29.4,29.82,North,350,7.0,7.0,86,0.00,,,0.00,Wunderground v.1.13,2013-03-10 10:41:00,
2013-03-10 05:42:00,33.1,29.4,29.82,North,5,7.0,9.0,86,0.00,,,0.00,Wunderground v.1.13,2013-03-10 10:42:00,
2013-03-10 05:46:00,33.1,29.4,29.82,WNW,294,7.0,9.0,86,0.00,,,0.00,Wunderground v.1.13,2013-03-10 10:46:00,
2013-03-10 05:47:00,33.1,29.4,29.82,North,5,7.0,14.0,86,0.00,,,0.00,Wunderground v.1.13,2013-03-10 10:47:00,
2013-03-10 05:48:00,33.2,29.5,29.82,WNW,298,7.0,14.0,86,0.00,,,0.00,Wunderground v.1.13,2013-03-10 10:48:00,
2013-03-10 05:52:00,33.2,29.5,29.82,NNE,22,7.0,7.0,86,0.00,,,0.00,Wunderground v.1.13,2013-03-10 10:52:00,
2013-03-10 05:53:00,33.2,29.5,29.82,NNW,331,7.0,7.0,86,0.00,,,0.00,Wunderground v.1.13,2013-03-10 10:53:00,
2013-03-10 05:54:00,33.2,29.5,29.82,NNE,26,7.0,13.0,86,0.00,,,0.00,Wunderground v.1.13,2013-03-10 10:54:00,
2013-03-10 05:57:00,33.2,29.2,29.82,NE,36,7.0,9.0,85,0.00,,,0.00,Wunderground v.1.13,2013-03-10 10:57:00,
2013-03-10 05:59:00,33.2,29.2,29.82,NNE,17,7.0,9.0,85,0.00,,,0.00,Wunderground v.1.13,2013-03-10 10:59:00,
2013-03-10 06:02:00,33.2,29.2,29.82,North,355,7.0,9.0,85,0.00,,,0.00,Wunderground v.1.13,2013-03-10 11:02:00,
2013-03-10 06:05:00,33.2,29.2,29.82,NNW,341,7.0,7.0,85,0.00,,,0.00,Wunderground v.1.13,2013-03-10 11:05:00,
2013-03-10 06:06:00,33.2,29.2,29.82,North,5,7.0,7.0,85,0.00,,,0.00,Wunderground v.1.13,2013-03-10 11:06:00,
2013-03-10 06:12:00,33.3,29.3,29.83,West,278,7.0,7.0,85,0.00,,,0.00,Wunderground v.1.13,2013-03-10 11:12:00,
2013-03-10 06:14:00,33.3,29.0,29.83,NNE,17,7.0,11.0,84,0.00,,,0.00,Wunderground v.1.13,2013-03-10 11:14:00,
2013-03-10 06:19:00,33.3,29.0,29.83,North,360,7.0,8.0,84,0.00,,,0.00,Wunderground v.1.13,2013-03-10 11:19:00,
2013-03-10 06:22:00,33.3,29.0,29.84,NNE,21,7.0,11.0,84,0.00,,,0.00,Wunderground v.1.13,2013-03-10 11:22:00,
2013-03-10 06:25:00,33.4,29.1,29.84,North,355,7.0,7.0,84,0.00,,,0.00,Wunderground v.1.13,2013-03-10 11:25:00,
2013-03-10 06:26:00,33.4,29.1,29.84,NNE,12,7.0,8.0,84,0.00,,,0.00,Wunderground v.1.13,2013-03-10 11:26:00,
2013-03-10 06:29:00,33.4,29.1,29.85,North,350,7.0,13.0,84,0.00,,,0.00,Wunderground v.1.13,2013-03-10 11:29:00,
2013-03-10 06:30:00,33.4,29.1,29.85,NNE,32,7.0,7.0,84,0.00,,,0.00,Wunderground v.1.13,2013-03-10 11:30:00,
2013-03-10 06:32:00,33.4,29.1,29.85,North,360,7.0,8.0,84,0.00,,,0.00,Wunderground v.1.13,2013-03-10 11:32:00,
2013-03-10 06:35:00,33.4,29.1,29.85,North,355,7.0,7.0,84,0.00,,,0.00,Wunderground v.1.13,2013-03-10 11:35:00,
2013-03-10 06:37:00,33.4,29.1,29.85,WNW,294,8.0,8.0,84,0.00,,,0.00,Wunderground v.1.13,2013-03-10 11:37:00,
2013-03-10 06:40:00,33.4,29.1,29.85,ENE,64,7.0,7.0,84,0.00,,,0.00,Wunderground v.1.13,2013-03-10 11:40:00,
2013-03-10 06:43:00,33.4,29.1,29.86,NNE,17,7.0,9.0,84,0.00,,,0.00,Wunderground v.1.13,2013-03-10 11:43:00,
2013-03-10 06:47:00,33.4,29.1,29.86,NNE,22,7.0,7.0,84,0.00,,,0.00,Wunderground v.1.13,2013-03-10 11:47:00,
2013-03-10 06:49:00,33.4,29.1,29.86,NW,309,6.0,8.0,84,0.00,,,0.00,Wunderground v.1.13,2013-03-10 11:49:00,
2013-03-10 06:50:00,33.4,29.1,29.86,North,9,6.0,6.0,84,0.00,,,0.00,Wunderground v.1.13,2013-03-10 11:50:00,
2013-03-10 06:51:00,33.4,29.1,29.86,NW,322,6.0,6.0,84,0.00,,,0.00,Wunderground v.1.13,2013-03-10 11:51:00,
2013-03-10 06:54:00,33.4,29.1,29.85,North,360,6.0,8.0,84,0.00,,,0.00,Wunderground v.1.13,2013-03-10 11:54:00,
2013-03-10 06:56:00,33.4,29.1,29.85,NNE,12,6.0,6.0,84,0.00,,,0.00,Wunderground v.1.13,2013-03-10 11:56:00,
2013-03-10 06:59:00,33.4,29.1,29.86,NNW,346,6.0,8.0,84,0.00,,,0.00,Wunderground v.1.13,2013-03-10 11:59:00,
2013-03-10 07:01:00,33.4,29.1,29.86,North,10,7.0,8.0,84,0.00,,,0.00,Wunderground v.1.13,2013-03-10 12:01:00,
2013-03-10 07:03:00,33.4,29.1,29.86,NE,48,7.0,8.0,84,0.00,,,0.00,Wunderground v.1.13,2013-03-10 12:03:00,
2013-03-10 07:07:00,33.4,29.1,29.85,NNE,24,7.0,11.0,84,0.00,,,0.00,Wunderground v.1.13,2013-03-10 12:07:00,
2013-03-10 07:08:00,33.4,29.1,29.85,North,360,7.0,11.0,84,0.00,,,0.00,Wunderground v.1.13,2013-03-10 12:08:00,
2013-03-10 07:10:00,33.4,29.1,29.86,NNW,348,7.0,7.0,84,0.00,,,0.00,Wunderground v.1.13,2013-03-10 12:10:00,
2013-03-10 07:12:00,33.3,29.0,29.86,North,360,6.0,8.0,84,0.00,,,0.00,Wunderground v.1.13,2013-03-10 12:12:00,
2013-03-10 07:15:00,33.4,29.1,29.86,NNW,342,6.0,6.0,84,0.00,,,0.00,Wunderground v.1.13,2013-03-10 12:15:00,
2013-03-10 07:16:00,33.4,29.1,29.86,NNW,330,6.0,12.0,84,0.00,,,0.00,Wunderground v.1.13,2013-03-10 12:16:00,
2013-03-10 07:20:00,33.3,29.0,29.86,North,360,6.0,9.0,84,0.00,,,0.00,Wunderground v.1.13,2013-03-10 12:20:00,
2013-03-10 07:21:00,33.3,29.0,29.86,NW,306,6.0,9.0,84,0.00,,,0.00,Wunderground v.1.13,2013-03-10 12:21:00,
2013-03-10 07:22:00,33.3,29.0,29.86,North,360,6.0,9.0,84,0.00,,,0.00,Wunderground v.1.13,2013-03-10 12:22:00,
2013-03-10 07:26:00,33.3,29.3,29.87,NNW,346,6.0,7.0,85,0.00,,,0.00,Wunderground v.1.13,2013-03-10 12:26:00,
2013-03-10 07:28:00,33.3,29.3,29.87,NE,34,6.0,8.0,85,0.00,,,0.00,Wunderground v.1.13,2013-03-10 12:28:00,
2013-03-10 07:29:00,33.3,29.3,29.87,NNW,342,6.0,10.0,85,0.00,,,0.00,Wunderground v.1.13,2013-03-10 12:29:00,
2013-03-10 07:32:00,33.3,29.3,29.86,NE,35,6.0,6.0,85,0.00,,,0.00,Wunderground v.1.13,2013-03-10 12:32:00,
2013-03-10 07:34:00,33.3,29.3,29.86,North,9,6.0,7.0,85,0.00,,,0.00,Wunderground v.1.13,2013-03-10 12:34:00,
2013-03-10 07:36:00,33.3,29.3,29.85,NNE,15,6.0,7.0,85,0.00,,,0.00,Wunderground v.1.13,2013-03-10 12:36:00,
2013-03-10 07:39:00,33.2,29.2,29.86,NNW,345,5.0,7.0,85,0.00,,,0.00,Wunderground v.1.13,2013-03-10 12:39:00,
2013-03-10 07:41:00,33.2,29.2,29.87,NNW,340,6.0,11.0,85,0.00,,,0.00,Wunderground v.1.13,2013-03-10 12:41:00,
2013-03-10 07:46:00,33.2,29.2,29.87,NNW,333,6.0,6.0,85,0.00,,,0.00,Wunderground v.1.13,2013-03-10 12:46:00,
2013-03-10 07:47:00,33.2,29.2,29.87,North,360,6.0,7.0,85,0.00,,,0.00,Wunderground v.1.13,2013-03-10 12:47:00,
2013-03-10 07:52:00,33.2,29.2,29.86,North,360,7.0,10.0,85,0.00,,,0.00,Wunderground v.1.13,2013-03-10 12:52:00,
2013-03-10 07:53:00,33.2,29.2,29.87,NW,309,6.0,10.0,85,0.00,,,0.00,Wunderground v.1.13,2013-03-10 12:53:00,
2013-03-10 07:58:00,33.2,29.2,29.88,WNW,296,6.0,9.0,85,0.00,,,0.00,Wunderground v.1.13,2013-03-10 12:58:00,
2013-03-10 07:59:00,33.2,29.2,29.88,NNW,331,6.0,9.0,85,0.00,,,0.00,Wunderground v.1.13,2013-03-10 12:59:00,
2013-03-10 08:03:00,33.2,29.2,29.88,NNE,15,7.0,12.0,85,0.00,,,0.00,Wunderground v.1.13,2013-03-10 13:03:00,
2013-03-10 08:04:00,33.2,29.2,29.88,NE,34,7.0,12.0,85,0.00,,,0.00,Wunderground v.1.13,2013-03-10 13:04:00,
2013-03-10 08:10:00,33.2,28.9,29.88,NW,310,7.0,7.0,84,0.00,,,0.00,Wunderground v.1.13,2013-03-10 13:10:00,
2013-03-10 08:11:00,33.2,28.9,29.87,North,351,7.0,7.0,84,0.00,,,0.00,Wunderground v.1.13,2013-03-10 13:11:00,
2013-03-10 08:16:00,33.2,29.2,29.88,NE,41,6.0,6.0,85,0.00,,,0.00,Wunderground v.1.13,2013-03-10 13:16:00,
2013-03-10 08:18:00,33.2,29.2,29.87,WNW,286,5.0,6.0,85,0.00,,,0.00,Wunderground v.1.13,2013-03-10 13:18:00,
2013-03-10 08:22:00,33.1,29.1,29.87,NW,315,5.0,13.0,85,0.00,,,0.00,Wunderground v.1.13,2013-03-10 13:22:00,
2013-03-10 08:23:00,33.1,29.1,29.87,NW,309,5.0,13.0,85,0.00,,,0.00,Wunderground v.1.13,2013-03-10 13:23:00,
2013-03-10 08:27:00,33.0,29.0,29.85,NNE,22,5.0,7.0,85,0.00,,,0.00,Wunderground v.1.13,2013-03-10 13:27:00,
2013-03-10 08:29:00,32.9,28.9,29.84,NNW,348,5.0,7.0,85,0.00,,,0.00,Wunderground v.1.13,2013-03-10 13:29:00,
2013-03-10 08:30:00,32.9,28.9,29.84,North,349,5.0,7.0,85,0.00,,,0.00,Wunderground v.1.13,2013-03-10 13:30:00,
2013-03-10 08:33:00,32.8,28.8,29.86,NW,323,5.0,10.0,85,0.00,,,0.00,Wunderground v.1.13,2013-03-10 13:33:00,
2013-03-10 08:36:00,32.8,28.8,29.88,WNW,287,5.0,6.0,85,0.00,,,0.00,Wunderground v.1.13,2013-03-10 13:36:00,
2013-03-10 08:38:00,32.8,28.5,29.89,NNW,328,6.0,7.0,84,0.00,,,0.00,Wunderground v.1.13,2013-03-10 13:38:00,
2013-03-10 08:44:00,32.9,28.6,29.91,NNW,338,5.0,6.0,84,0.00,,,0.00,Wunderground v.1.13,2013-03-10 13:44:00,
2013-03-10 08:45:00,32.9,28.6,29.91,NNW,343,5.0,5.0,84,0.00,,,0.00,Wunderground v.1.13,2013-03-10 13:45:00,
2013-03-10 08:47:00,32.9,28.6,29.92,NNW,348,5.0,6.0,84,0.00,,,0.00,Wunderground v.1.13,2013-03-10 13:47:00,
2013-03-10 08:50:00,32.9,28.6,29.92,North,355,5.0,5.0,84,0.00,,,0.00,Wunderground v.1.13,2013-03-10 13:50:00,
2013-03-10 08:51:00,32.9,28.6,29.92,North,355,4.0,5.0,84,0.00,,,0.00,Wunderground v.1.13,2013-03-10 13:51:00,
2013-03-10 08:54:00,33.0,28.7,29.93,NW,306,4.0,5.0,84,0.00,,,0.00,Wunderground v.1.13,2013-03-10 13:54:00,
2013-03-10 08:56:00,32.9,28.6,29.93,WNW,293,4.0,4.0,84,0.00,,,0.00,Wunderground v.1.13,2013-03-10 13:56:00,
2013-03-10 09:01:00,32.9,28.3,29.93,North,5,4.0,5.0,83,0.00,,,0.00,Wunderground v.1.13,2013-03-10 14:01:00,
2013-03-10 09:02:00,32.9,28.3,29.93,WNW,302,5.0,5.0,83,0.00,,,0.00,Wunderground v.1.13,2013-03-10 14:02:00,
2013-03-10 09:08:00,32.9,28.3,29.92,WNW,300,5.0,11.0,83,0.00,,,0.00,Wunderground v.1.13,2013-03-10 14:08:00,
2013-03-10 09:11:00,32.9,28.3,29.92,NNE,13,4.0,7.0,83,0.00,,,0.00,Wunderground v.1.13,2013-03-10 14:11:00,
2013-03-10 09:17:00,32.8,28.2,29.93,NW,304,6.0,16.0,83,0.00,,,0.00,Wunderground v.1.13,2013-03-10 14:17:00,
2013-03-10 09:18:00,32.8,27.9,29.93,NNW,329,6.0,16.0,82,0.00,,,0.00,Wunderground v.1.13,2013-03-10 14:18:00,
2013-03-10 09:20:00,32.8,27.9,29.93,NNW,340,6.0,6.0,82,0.00,,,0.00,Wunderground v.1.13,2013-03-10 14:20:00,
2013-03-10 09:23:00,32.7,27.8,29.93,North,350,7.0,8.0,82,0.00,,,0.00,Wunderground v.1.13,2013-03-10 14:23:00,
2013-03-10 09:27:00,32.6,27.7,29.93,NW,309,6.0,7.0,82,0.00,,,0.00,Wunderground v.1.13,2013-03-10 14:27:00,
2013-03-10 09:29:00,32.5,27.9,29.93,West,277,5.0,7.0,83,0.00,,,0.00,Wunderground v.1.13,2013-03-10 14:29:00,
2013-03-10 09:30:00,32.4,27.5,29.94,NNW,331,5.0,5.0,82,0.00,,,0.00,Wunderground v.1.13,2013-03-10 14:30:00,
2013-03-10 09:34:00,32.3,27.4,29.94,WNW,296,5.0,7.0,82,0.00,,,0.00,Wunderground v.1.13,2013-03-10 14:34:00,
2013-03-10 09:36:00,32.1,27.2,29.94,NW,305,5.0,5.0,82,0.00,,,0.00,Wunderground v.1.13,2013-03-10 14:36:00,
2013-03-10 09:37:00,32.0,27.4,29.94,NW,304,6.0,10.0,83,0.00,,,0.00,Wunderground v.1.13,2013-03-10 14:37:00,
2013-03-10 09:39:00,31.9,27.3,29.94,West,267,6.0,10.0,83,0.00,,,0.00,Wunderground v.1.13,2013-03-10 14:39:00,
2013-03-10 09:42:00,31.8,27.2,29.94,WSW,251,6.0,6.0,83,0.00,,,0.00,Wunderground v.1.13,2013-03-10 14:42:00,
2013-03-10 09:43:00,31.7,27.1,29.95,West,277,6.0,6.0,83,0.00,,,0.00,Wunderground v.1.13,2013-03-10 14:43:00,
2013-03-10 09:48:00,31.6,27.0,29.94,WNW,300,5.0,9.0,83,0.00,,,0.00,Wunderground v.1.13,2013-03-10 14:48:00,
2013-03-10 09:49:00,31.5,26.9,29.94,NW,304,5.0,9.0,83,0.00,,,0.00,Wunderground v.1.13,2013-03-10 14:49:00,
2013-03-10 09:50:00,31.5,26.9,29.94,West,281,5.0,6.0,83,0.00,,,0.00,Wunderground v.1.13,2013-03-10 14:50:00,
2013-03-10 09:51:00,31.4,26.8,29.94,NW,316,5.0,6.0,83,0.00,,,0.00,Wunderground v.1.13,2013-03-10 14:51:00,
2013-03-10 09:54:00,31.3,26.7,29.94,NNW,336,5.0,11.0,83,0.00,,,0.00,Wunderground v.1.13,2013-03-10 14:54:00,
2013-03-10 09:55:00,31.3,27.0,29.94,WNW,298,5.0,5.0,84,0.00,,,0.00,Wunderground v.1.13,2013-03-10 14:55:00,
2013-03-10 09:58:00,31.3,27.0,29.94,NNW,344,5.0,6.0,84,0.00,,,0.00,Wunderground v.1.13,2013-03-10 14:58:00,
2013-03-10 10:01:00,31.3,27.0,29.93,West,268,4.0,4.0,84,0.00,,,0.00,Wunderground v.1.13,2013-03-10 15:01:00,
2013-03-10 10:03:00,31.3,27.0,29.93,NNW,338,4.0,10.0,84,0.00,,,0.00,Wunderground v.1.13,2013-03-10 15:03:00,
2013-03-10 10:04:00,31.2,26.9,29.92,NNW,335,5.0,10.0,84,0.00,,,0.00,Wunderground v.1.13,2013-03-10 15:04:00,
2013-03-10 10:05:00,31.2,26.9,29.92,NW,322,5.0,5.0,84,0.00,,,0.00,Wunderground v.1.13,2013-03-10 15:05:00,
2013-03-10 10:07:00,31.2,26.9,29.92,NNW,348,5.0,7.0,84,0.00,,,0.00,Wunderground v.1.13,2013-03-10 15:07:00,
2013-03-10 10:10:00,31.2,26.9,29.91,NW,319,5.0,5.0,84,0.00,,,0.00,Wunderground v.1.13,2013-03-10 15:10:00,
2013-03-10 10:11:00,31.3,27.0,29.91,NW,313,4.0,5.0,84,0.00,,,0.00,Wunderground v.1.13,2013-03-10 15:11:00,
2013-03-10 10:13:00,31.4,27.1,29.91,North,5,4.0,5.0,84,0.00,,,0.00,Wunderground v.1.13,2013-03-10 15:13:00,
2013-03-10 10:14:00,31.4,27.1,29.92,North,355,4.0,10.0,84,0.00,,,0.00,Wunderground v.1.13,2013-03-10 15:14:00,
2013-03-10 10:17:00,31.4,27.1,29.93,NNE,19,4.0,6.0,84,0.00,,,0.00,Wunderground v.1.13,2013-03-10 15:17:00,
2013-03-10 10:21:00,31.6,27.0,29.94,North,11,4.0,4.0,83,0.00,,,0.00,Wunderground v.1.13,2013-03-10 15:21:00,
2013-03-10 10:22:00,31.6,27.0,29.94,North,360,4.0,5.0,83,0.00,,,0.00,Wunderground v.1.13,2013-03-10 15:22:00,
2013-03-10 10:24:00,31.6,27.0,29.94,NE,37,4.0,5.0,83,0.00,,,0.00,Wunderground v.1.13,2013-03-10 15:24:00,
2013-03-10 10:25:00,31.6,27.0,29.94,WNW,294,4.0,4.0,83,0.00,,,0.00,Wunderground v.1.13,2013-03-10 15:25:00,
2013-03-10 10:28:00,31.5,26.9,29.94,NW,311,4.0,7.0,83,0.00,,,0.00,Wunderground v.1.13,2013-03-10 15:28:00,
2013-03-10 10:30:00,31.4,26.8,29.94,NE,45,5.0,5.0,83,0.00,,,0.00,Wunderground v.1.13,2013-03-10 15:30:00,
2013-03-10 10:31:00,31.4,26.8,29.94,NE,45,5.0,5.0,83,0.00,,,0.00,Wunderground v.1.13,2013-03-10 15:31:00,
2013-03-10 10:36:00,31.3,26.7,29.95,North,355,4.0,7.0,83,0.00,,,0.00,Wunderground v.1.13,2013-03-10 15:36:00,
2013-03-10 10:37:00,31.3,26.7,29.95,NW,307,4.0,7.0,83,0.00,,,0.00,Wunderground v.1.13,2013-03-10 15:37:00,
2013-03-10 10:43:00,31.3,26.7,29.95,NW,304,4.0,6.0,83,0.00,,,0.00,Wunderground v.1.13,2013-03-10 15:43:00,
2013-03-10 10:45:00,31.3,26.4,29.95,North,355,5.0,5.0,82,0.00,,,0.00,Wunderground v.1.13,2013-03-10 15:45:00,
2013-03-10 10:50:00,31.3,26.4,29.95,NNW,330,5.0,5.0,82,0.00,,,0.00,Wunderground v.1.13,2013-03-10 15:50:00,
2013-03-10 10:51:00,31.4,26.5,29.95,NNW,333,5.0,5.0,82,0.00,,,0.00,Wunderground v.1.13,2013-03-10 15:51:00,
2013-03-10 10:56:00,31.4,26.5,29.95,NNE,13,4.0,6.0,82,0.00,,,0.00,Wunderground v.1.13,2013-03-10 15:56:00,
2013-03-10 10:57:00,31.4,26.5,29.95,WNW,300,4.0,6.0,82,0.00,,,0.00,Wunderground v.1.13,2013-03-10 15:57:00,
2013-03-10 11:02:00,31.4,26.5,29.95,NNE,14,5.0,8.0,82,0.00,,,0.00,Wunderground v.1.13,2013-03-10 16:02:00,
2013-03-10 11:03:00,31.5,26.6,29.95,North,350,5.0,8.0,82,0.00,,,0.00,Wunderground v.1.13,2013-03-10 16:03:00,
2013-03-10 11:08:00,31.5,26.6,29.95,NNE,18,5.0,6.0,82,0.00,,,0.00,Wunderground v.1.13,2013-03-10 16:08:00,
2013-03-10 11:09:00,31.5,26.6,29.95,North,355,5.0,6.0,82,0.00,,,0.00,Wunderground v.1.13,2013-03-10 16:09:00,
2013-03-10 11:11:00,31.5,26.6,29.95,NNW,339,5.0,6.0,82,0.00,,,0.00,Wunderground v.1.13,2013-03-10 16:11:00,
2013-03-10 11:15:00,31.6,26.4,29.96,WNW,300,5.0,9.0,81,0.00,,,0.00,Wunderground v.1.13,2013-03-10 16:15:00,
2013-03-10 11:16:00,31.7,26.5,29.96,North,351,5.0,9.0,81,0.00,,,0.00,Wunderground v.1.13,2013-03-10 16:16:00,
2013-03-10 11:20:00,31.8,26.6,29.95,NNE,28,5.0,7.0,81,0.00,,,0.00,Wunderground v.1.13,2013-03-10 16:20:00,
2013-03-10 11:21:00,31.9,26.4,29.96,NNE,13,6.0,7.0,80,0.00,,,0.00,Wunderground v.1.13,2013-03-10 16:21:00,
2013-03-10 11:25:00,31.9,26.4,29.96,NW,313,7.0,7.0,80,0.00,,,0.00,Wunderground v.1.13,2013-03-10 16:25:00,
2013-03-10 11:26:00,31.9,26.4,29.96,NNE,19,7.0,7.0,80,0.00,,,0.00,Wunderground v.1.13,2013-03-10 16:26:00,
2013-03-10 11:30:00,32.1,26.3,29.96,North,350,8.0,16.0,79,0.00,,,0.00,Wunderground v.1.13,2013-03-10 16:30:00,
2013-03-10 11:31:00,32.1,26.3,29.96,NW,318,9.0,16.0,79,0.00,,,0.00,Wunderground v.1.13,2013-03-10 16:31:00,
2013-03-10 11:32:00,32.0,25.9,29.96,NNE,19,9.0,16.0,78,0.00,,,0.00,Wunderground v.1.13,2013-03-10 16:32:00,
2013-03-10 11:33:00,32.1,26.0,29.96,NNW,348,8.0,16.0,78,0.00,,,0.00,Wunderground v.1.13,2013-03-10 16:33:00,
2013-03-10 11:36:00,32.1,26.0,29.96,NNE,17,8.0,8.0,78,0.00,,,0.00,Wunderground v.1.13,2013-03-10 16:36:00,
2013-03-10 11:38:00,32.1,26.0,29.97,North,355,9.0,9.0,78,0.00,,,0.00,Wunderground v.1.13,2013-03-10 16:38:00,
2013-03-10 11:42:00,32.1,26.0,29.97,NNW,331,8.0,10.0,78,0.00,,,0.00,Wunderground v.1.13,2013-03-10 16:42:00,
2013-03-10 11:45:00,32.1,26.0,29.97,NNE,29,9.0,11.0,78,0.00,,,0.00,Wunderground v.1.13,2013-03-10 16:45:00,
2013-03-10 11:48:00,32.0,25.9,29.97,WNW,302,9.0,14.0,78,0.00,,,0.00,Wunderground v.1.13,2013-03-10 16:48:00,
2013-03-10 11:50:00,32.0,25.9,29.97,NW,311,9.0,12.0,78,0.00,,,0.00,Wunderground v.1.13,2013-03-10 16:50:00,
2013-03-10 11:51:00,31.9,25.8,29.97,NNE,12,9.0,12.0,78,0.00,,,0.00,Wunderground v.1.13,2013-03-10 16:51:00,
2013-03-10 11:54:00,31.9,25.8,29.97,North,9,9.0,12.0,78,0.00,,,0.00,Wunderground v.1.13,2013-03-10 16:54:00,
2013-03-10 11:56:00,31.8,26.0,29.96,NNE,17,9.0,9.0,79,0.00,,,0.00,Wunderground v.1.13,2013-03-10 16:56:00,
2013-03-10 11:59:00,31.8,26.0,29.96,North,355,9.0,11.0,79,0.00,,,0.00,Wunderground v.1.13,2013-03-10 16:59:00,
2013-03-10 12:00:00,31.8,26.0,29.96,NNE,29,8.0,8.0,79,0.00,,,0.00,Wunderground v.1.13,2013-03-10 17:00:00,
2013-03-10 12:04:00,31.8,26.0,29.96,North,360,8.0,12.0,79,0.00,,,0.00,Wunderground v.1.13,2013-03-10 17:04:00,
2013-03-10 12:06:00,31.8,26.0,29.96,NNE,20,8.0,10.0,79,0.00,,,0.00,Wunderground v.1.13,2013-03-10 17:06:00,
2013-03-10 12:09:00,31.7,25.9,29.96,North,350,8.0,10.0,79,0.00,,,0.00,Wunderground v.1.13,2013-03-10 17:09:00,
2013-03-10 12:10:00,31.7,25.9,29.96,NNE,18,8.0,14.0,79,0.00,,,0.00,Wunderground v.1.13,2013-03-10 17:10:00,
2013-03-10 12:11:00,31.7,25.9,29.95,North,5,8.0,14.0,79,0.00,,,0.00,Wunderground v.1.13,2013-03-10 17:11:00,
2013-03-10 12:15:00,31.5,25.4,29.95,NNE,25,9.0,13.0,78,0.00,,,0.00,Wunderground v.1.13,2013-03-10 17:15:00,
2013-03-10 12:17:00,31.5,25.4,29.95,North,355,9.0,13.0,78,0.00,,,0.00,Wunderground v.1.13,2013-03-10 17:17:00,
2013-03-10 12:18:00,31.4,25.3,29.95,NNE,15,9.0,13.0,78,0.00,,,0.00,Wunderground v.1.13,2013-03-10 17:18:00,
2013-03-10 12:20:00,31.4,25.6,29.95,NW,326,9.0,10.0,79,0.00,,,0.00,Wunderground v.1.13,2013-03-10 17:20:00,
2013-03-10 12:22:00,31.4,25.6,29.94,NNW,330,9.0,10.0,79,0.00,,,0.00,Wunderground v.1.13,2013-03-10 17:22:00,
2013-03-10 12:26:00,31.4,25.6,29.94,NNW,337,9.0,11.0,79,0.00,,,0.00,Wunderground v.1.13,2013-03-10 17:26:00,
2013-03-10 12:28:00,31.4,25.6,29.94,NW,314,8.0,15.0,79,0.00,,,0.00,Wunderground v.1.13,2013-03-10 17:28:00,
2013-03-10 12:29:00,31.4,25.6,29.94,WNW,302,8.0,15.0,79,0.00,,,0.00,Wunderground v.1.13,2013-03-10 17:29:00,
2013-03-10 12:31:00,31.4,25.6,29.96,NNE,28,9.0,9.0,79,0.00,,,0.00,Wunderground v.1.13,2013-03-10 17:31:00,
2013-03-10 12:34:00,31.4,25.6,29.97,North,5,8.0,10.0,79,0.00,,,0.00,Wunderground v.1.13,2013-03-10 17:34:00,
2013-03-10 12:36:00,31.4,25.6,29.97,NNW,340,8.0,8.0,79,0.00,,,0.00,Wunderground v.1.13,2013-03-10 17:36:00,
2013-03-10 12:40:00,31.4,25.6,29.97,NNE,25,7.0,10.0,79,0.00,,,0.00,Wunderground v.1.13,2013-03-10 17:40:00,
2013-03-10 12:42:00,31.4,25.6,29.97,North,5,7.0,10.0,79,0.00,,,0.00,Wunderground v.1.13,2013-03-10 17:42:00,
2013-03-10 12:46:00,31.4,25.6,29.98,North,9,7.0,15.0,79,0.00,,,0.00,Wunderground v.1.13,2013-03-10 17:46:00,
2013-03-10 12:47:00,31.4,25.6,29.98,North,5,8.0,15.0,79,0.00,,,0.00,Wunderground v.1.13,2013-03-10 17:47:00,
2013-03-10 12:49:00,31.5,25.7,29.97,WNW,299,7.0,15.0,79,0.00,,,0.00,Wunderground v.1.13,2013-03-10 17:49:00,
2013-03-10 12:52:00,31.4,25.3,29.97,NNE,29,8.0,9.0,78,0.00,,,0.00,Wunderground v.1.13,2013-03-10 17:52:00,
2013-03-10 12:53:00,31.4,25.3,29.97,North,360,7.0,9.0,78,0.00,,,0.00,Wunderground v.1.13,2013-03-10 17:53:00,
2013-03-10 12:55:00,31.4,25.3,29.97,NNE,19,7.0,12.0,78,0.00,,,0.00,Wunderground v.1.13,2013-03-10 17:55:00,
2013-03-10 12:58:00,31.4,25.3,29.97,NNE,22,7.0,12.0,78,0.00,,,0.00,Wunderground v.1.13,2013-03-10 17:58:00,
2013-03-10 13:03:00,31.5,25.4,29.97,NNW,347,6.0,7.0,78,0.00,,,0.00,Wunderground v.1.13,2013-03-10 18:03:00,
2013-03-10 13:05:00,31.6,25.5,29.97,NNW,344,6.0,6.0,78,0.00,,,0.00,Wunderground v.1.13,2013-03-10 18:05:00,
2013-03-10 13:06:00,31.6,25.8,29.97,North,360,6.0,6.0,79,0.00,,,0.00,Wunderground v.1.13,2013-03-10 18:06:00,
2013-03-10 13:09:00,31.6,25.5,29.97,North,5,6.0,15.0,78,0.00,,,0.00,Wunderground v.1.13,2013-03-10 18:09:00,
2013-03-10 13:12:00,31.5,25.4,29.96,NNW,340,6.0,9.0,78,0.00,,,0.00,Wunderground v.1.13,2013-03-10 18:12:00,
2013-03-10 13:13:00,31.5,25.4,29.96,NNE,30,6.0,9.0,78,0.00,,,0.00,Wunderground v.1.13,2013-03-10 18:13:00,
2013-03-10 13:14:00,31.5,25.4,29.96,NW,313,6.0,9.0,78,0.00,,,0.00,Wunderground v.1.13,2013-03-10 18:14:00,
2013-03-10 13:16:00,31.4,25.3,29.96,North,5,7.0,10.0,78,0.00,,,0.00,Wunderground v.1.13,2013-03-10 18:16:00,
2013-03-10 13:20:00,31.4,25.3,29.96,NNE,13,8.0,8.0,78,0.00,,,0.00,Wunderground v.1.13,2013-03-10 18:20:00,
2013-03-10 13:25:00,31.3,25.2,29.97,North,360,8.0,9.0,78,0.00,,,0.00,Wunderground v.1.13,2013-03-10 18:25:00,
2013-03-10 13:27:00,31.3,25.2,29.96,NNE,20,8.0,11.0,78,0.00,,,0.00,Wunderground v.1.13,2013-03-10 18:27:00,
2013-03-10 13:31:00,31.3,25.2,29.95,NE,40,9.0,9.0,78,0.00,,,0.00,Wunderground v.1.13,2013-03-10 18:31:00,
2013-03-10 13:34:00,31.3,25.2,29.96,WNW,296,8.0,9.0,78,0.00,,,0.00,Wunderground v.1.13,2013-03-10 18:34:00,
2013-03-10 13:37:00,31.2,25.1,29.95,NNE,14,8.0,12.0,78,0.00,,,0.00,Wunderground v.1.13,2013-03-10 18:37:00,
2013-03-10 13:42:00,31.1,25.0,29.94,North,11,9.0,13.0,78,0.00,,,0.00,Wunderground v.1.13,2013-03-10 18:42:00,
2013-03-10 13:43:00,31.1,25.0,29.94,North,350,9.0,13.0,78,0.00,,,0.00,Wunderground v.1.13,2013-03-10 18:43:00,
2013-03-10 13:48:00,31.1,25.0,29.94,NNE,15,10.0,15.0,78,0.00,,,0.00,Wunderground v.1.13,2013-03-10 18:48:00,
2013-03-10 13:49:00,31.1,25.0,29.94,NNE,22,10.0,15.0,78,0.00,,,0.00,Wunderground v.1.13,2013-03-10 18:49:00,
2013-03-10 13:51:00,31.1,25.0,29.93,WNW,292,10.0,18.0,78,0.00,,,0.00,Wunderground v.1.13,2013-03-10 18:51:00,
2013-03-10 13:57:00,31.1,25.0,29.93,NE,40,9.0,9.0,78,0.00,,,0.00,Wunderground v.1.13,2013-03-10 18:57:00,
2013-03-10 13:58:00,31.1,25.0,29.93,NNW,336,9.0,9.0,78,0.00,,,0.00,Wunderground v.1.13,2013-03-10 18:58:00,
2013-03-10 14:00:00,31.1,25.0,29.93,NNE,18,8.0,8.0,78,0.00,,,0.00,Wunderground v.1.13,2013-03-10 19:00:00,
2013-03-10 14:04:00,31.1,25.0,29.93,NW,317,8.0,15.0,78,0.00,,,0.00,Wunderground v.1.13,2013-03-10 19:04:00,
2013-03-10 14:06:00,31.0,24.9,29.93,North,360,8.0,12.0,78,0.00,,,0.00,Wunderground v.1.13,2013-03-10 19:06:00,
2013-03-10 14:09:00,31.0,24.9,29.93,NNE,32,9.0,12.0,78,0.00,,,0.00,Wunderground v.1.13,2013-03-10 19:09:00,
2013-03-10 14:14:00,31.0,24.9,29.93,North,360,9.0,12.0,78,0.00,,,0.00,Wunderground v.1.13,2013-03-10 19:14:00,
2013-03-10 14:15:00,31.0,24.9,29.93,NW,321,9.0,9.0,78,0.00,,,0.00,Wunderground v.1.13,2013-03-10 19:15:00,
2013-03-10 14:20:00,31.1,25.0,29.94,NNE,32,8.0,9.0,78,0.00,,,0.00,Wunderground v.1.13,2013-03-10 19:20:00,
2013-03-10 14:21:00,31.2,25.1,29.93,NNE,19,8.0,9.0,78,0.00,,,0.00,Wunderground v.1.13,2013-03-10 19:21:00,
2013-03-10 14:24:00,31.3,25.2,29.93,NE,48,8.0,10.0,78,0.00,,,0.00,Wunderground v.1.13,2013-03-10 19:24:00,
2013-03-10 14:28:00,31.3,24.9,29.93,North,360,9.0,13.0,77,0.00,,,0.00,Wunderground v.1.13,2013-03-10 19:28:00,
2013-03-10 14:31:00,31.4,25.0,29.93,NNW,338,9.0,9.0,77,0.00,,,0.00,Wunderground v.1.13,2013-03-10 19:31:00,
2013-03-10 14:33:00,31.4,25.0,29.93,North,360,9.0,16.0,77,0.00,,,0.00,Wunderground v.1.13,2013-03-10 19:33:00,
2013-03-10 14:35:00,31.3,24.6,29.93,NNE,19,9.0,19.0,76,0.00,,,0.00,Wunderground v.1.13,2013-03-10 19:35:00,
2013-03-10 14:37:00,31.3,24.6,29.93,NNE,25,10.0,19.0,76,0.00,,,0.00,Wunderground v.1.13,2013-03-10 19:37:00,
2013-03-10 14:38:00,31.2,24.8,29.93,North,10,10.0,19.0,77,0.00,,,0.00,Wunderground v.1.13,2013-03-10 19:38:00,
2013-03-10 14:39:00,31.2,24.8,29.93,ENE,61,10.0,19.0,77,0.00,,,0.00,Wunderground v.1.13,2013-03-10 19:39:00,
2013-03-10 14:44:00,31.1,24.4,29.93,NE,34,11.0,16.0,76,0.00,,,0.00,Wunderground v.1.13,2013-03-10 19:44:00,
2013-03-10 14:46:00,31.1,24.7,29.94,NNE,30,10.0,10.0,77,0.00,,,0.00,Wunderground v.1.13,2013-03-10 19:46:00,
2013-03-10 14:49:00,31.0,24.3,29.94,NNE,15,11.0,18.0,76,0.00,,,0.00,Wunderground v.1.13,2013-03-10 19:49:00,
2013-03-10 14:51:00,31.0,24.6,29.94,NNE,15,11.0,13.0,77,0.00,,,0.00,Wunderground v.1.13,2013-03-10 19:51:00,
2013-03-10 14:54:00,30.9,24.5,29.94,North,11,11.0,18.0,77,0.00,,,0.00,Wunderground v.1.13,2013-03-10 19:54:00,
2013-03-10 14:55:00,30.9,24.2,29.94,NNE,13,11.0,13.0,76,0.00,,,0.00,Wunderground v.1.13,2013-03-10 19:55:00,
2013-03-10 14:58:00,30.9,24.2,29.94,North,360,12.0,18.0,76,0.00,,,0.00,Wunderground v.1.13,2013-03-10 19:58:00,
2013-03-10 15:00:00,30.9,24.2,29.94,NNE,13,12.0,21.0,76,0.00,,,0.00,Wunderground v.1.13,2013-03-10 20:00:00,
2013-03-10 15:01:00,30.9,24.2,29.94,NNE,33,13.0,21.0,76,0.00,,,0.00,Wunderground v.1.13,2013-03-10 20:01:00,
2013-03-10 15:07:00,31.0,24.3,29.94,NE,45,12.0,16.0,76,0.00,,,0.00,Wunderground v.1.13,2013-03-10 20:07:00,
2013-03-10 15:08:00,31.0,24.3,29.94,NNE,21,11.0,16.0,76,0.00,,,0.00,Wunderground v.1.13,2013-03-10 20:08:00,
2013-03-10 15:09:00,31.0,24.3,29.94,NE,44,11.0,16.0,76,0.00,,,0.00,Wunderground v.1.13,2013-03-10 20:09:00,
2013-03-10 15:12:00,31.0,24.3,29.94,NNE,17,9.0,15.0,76,0.00,,,0.00,Wunderground v.1.13,2013-03-10 20:12:00,
2013-03-10 15:13:00,31.1,24.4,29.94,NNE,26,9.0,15.0,76,0.00,,,0.00,Wunderground v.1.13,2013-03-10 20:13:00,
2013-03-10 15:17:00,31.3,24.9,29.94,North,5,8.0,12.0,77,0.00,,,0.00,Wunderground v.1.13,2013-03-10 20:17:00,
2013-03-10 15:18:00,31.3,24.6,29.95,North,355,8.0,12.0,76,0.00,,,0.00,Wunderground v.1.13,2013-03-10 20:18:00,
2013-03-10 15:19:00,31.3,24.6,29.95,North,355,8.0,12.0,76,0.00,,,0.00,Wunderground v.1.13,2013-03-10 20:19:00,
2013-03-10 15:23:00,31.3,24.6,29.95,WNW,299,7.0,11.0,76,0.00,,,0.00,Wunderground v.1.13,2013-03-10 20:23:00,
2013-03-10 15:25:00,31.4,24.7,29.95,NNE,15,8.0,12.0,76,0.00,,,0.00,Wunderground v.1.13,2013-03-10 20:25:00,
2013-03-10 15:30:00,31.1,24.4,29.94,NE,44,11.0,11.0,76,0.00,,,0.00,Wunderground v.1.13,2013-03-10 20:30:00,
2013-03-10 15:34:00,31.1,24.4,29.94,North,360,11.0,11.0,76,0.00,,,0.00,Wunderground v.1.13,2013-03-10 20:34:00,
2013-03-10 15:38:00,31.1,24.7,29.94,NNE,30,9.0,11.0,77,0.00,,,0.00,Wunderground v.1.13,2013-03-10 20:38:00,
2013-03-10 15:39:00,31.1,24.7,29.94,North,350,8.0,11.0,77,0.00,,,0.00,Wunderground v.1.13,2013-03-10 20:39:00,
2013-03-10 15:43:00,31.1,24.7,29.94,NNW,333,8.0,12.0,77,0.00,,,0.00,Wunderground v.1.13,2013-03-10 20:43:00,
2013-03-10 15:44:00,31.1,24.7,29.94,North,355,8.0,12.0,77,0.00,,,0.00,Wunderground v.1.13,2013-03-10 20:44:00,
2013-03-10 15:47:00,31.1,24.7,29.94,NNE,17,7.0,9.0,77,0.00,,,0.00,Wunderground v.1.13,2013-03-10 20:47:00,
2013-03-10 15:48:00,31.1,24.7,29.94,NNE,15,8.0,9.0,77,0.00,,,0.00,Wunderground v.1.13,2013-03-10 20:48:00,
2013-03-10 15:50:00,31.1,24.7,29.94,North,355,7.0,7.0,77,0.00,,,0.00,Wunderground v.1.13,2013-03-10 20:50:00,
2013-03-10 15:51:00,31.1,24.7,29.94,North,360,7.0,8.0,77,0.00,,,0.00,Wunderground v.1.13,2013-03-10 20:51:00,
2013-03-10 15:53:00,31.0,24.6,29.94,NE,38,8.0,11.0,77,0.00,,,0.00,Wunderground v.1.13,2013-03-10 20:53:00,
2013-03-10 15:55:00,31.0,24.6,29.94,North,9,9.0,9.0,77,0.00,,,0.00,Wunderground v.1.13,2013-03-10 20:55:00,
2013-03-10 15:56:00,31.0,24.6,29.94,NNW,348,9.0,22.0,77,0.00,,,0.00,Wunderground v.1.13,2013-03-10 20:56:00,
2013-03-10 15:57:00,31.0,24.3,29.94,North,5,9.0,22.0,76,0.00,,,0.00,Wunderground v.1.13,2013-03-10 20:57:00,
2013-03-10 16:02:00,30.9,24.2,29.94,NE,46,11.0,12.0,76,0.00,,,0.00,Wunderground v.1.13,2013-03-10 21:02:00,
2013-03-10 16:03:00,30.9,24.2,29.94,North,5,11.0,12.0,76,0.00,,,0.00,Wunderground v.1.13,2013-03-10 21:03:00,
2013-03-10 16:04:00,30.9,24.2,29.94,North,350,10.0,12.0,76,0.00,,,0.00,Wunderground v.1.13,2013-03-10 21:04:00,
2013-03-10 16:07:00,31.0,24.6,29.94,NNE,17,9.0,9.0,77,0.00,,,0.00,Wunderground v.1.13,2013-03-10 21:07:00,
2013-03-10 16:08:00,31.0,24.6,29.94,NNW,344,9.0,9.0,77,0.00,,,0.00,Wunderground v.1.13,2013-03-10 21:08:00,
2013-03-10 16:10:00,31.0,24.6,29.94,North,5,9.0,9.0,77,0.00,,,0.00,Wunderground v.1.13,2013-03-10 21:10:00,
2013-03-10 16:15:00,31.1,24.7,29.94,NNW,346,7.0,7.0,77,0.00,,,0.00,Wunderground v.1.13,2013-03-10 21:15:00,
2013-03-10 16:17:00,31.1,24.4,29.93,North,355,7.0,9.0,76,0.00,,,0.00,Wunderground v.1.13,2013-03-10 21:17:00,
2013-03-10 16:18:00,31.1,24.4,29.93,NNE,30,7.0,9.0,76,0.00,,,0.00,Wunderground v.1.13,2013-03-10 21:18:00,
2013-03-10 16:20:00,31.0,24.3,29.93,NNE,29,7.0,9.0,76,0.00,,,0.00,Wunderground v.1.13,2013-03-10 21:20:00,
2013-03-10 16:22:00,31.0,24.3,29.93,NNE,15,8.0,9.0,76,0.00,,,0.00,Wunderground v.1.13,2013-03-10 21:22:00,
2013-03-10 16:23:00,31.0,24.3,29.93,NNW,348,8.0,9.0,76,0.00,,,0.00,Wunderground v.1.13,2013-03-10 21:23:00,
2013-03-10 16:27:00,31.0,24.3,29.93,NNW,338,8.0,14.0,76,0.00,,,0.00,Wunderground v.1.13,2013-03-10 21:27:00,
2013-03-10 16:31:00,31.0,24.3,29.93,NNE,25,8.0,12.0,76,0.00,,,0.00,Wunderground v.1.13,2013-03-10 21:31:00,
2013-03-10 16:32:00,31.0,24.3,29.93,North,5,8.0,12.0,76,0.00,,,0.00,Wunderground v.1.13,2013-03-10 21:32:00,
2013-03-10 16:35:00,31.0,24.3,29.93,NNE,28,9.0,15.0,76,0.00,,,0.00,Wunderground v.1.13,2013-03-10 21:35:00,
2013-03-10 16:38:00,31.0,24.3,29.92,NNE,23,9.0,13.0,76,0.00,,,0.00,Wunderground v.1.13,2013-03-10 21:38:00,
2013-03-10 16:39:00,31.0,24.3,29.92,North,9,10.0,13.0,76,0.00,,,0.00,Wunderground v.1.13,2013-03-10 21:39:00,
2013-03-10 16:43:00,30.9,24.2,29.92,NNE,20,10.0,15.0,76,0.00,,,0.00,Wunderground v.1.13,2013-03-10 21:43:00,
2013-03-10 16:45:00,30.9,24.2,29.92,North,5,10.0,15.0,76,0.00,,,0.00,Wunderground v.1.13,2013-03-10 21:45:00,
2013-03-10 16:49:00,30.9,24.2,29.92,NW,306,9.0,10.0,76,0.00,,,0.00,Wunderground v.1.13,2013-03-10 21:49:00,
2013-03-10 16:54:00,30.8,24.1,29.92,North,360,7.0,11.0,76,0.00,,,0.00,Wunderground v.1.13,2013-03-10 21:54:00,
2013-03-10 16:56:00,30.8,24.1,29.92,North,5,7.0,18.0,76,0.00,,,0.00,Wunderground v.1.13,2013-03-10 21:56:00,
2013-03-10 17:00:00,30.8,24.1,29.91,NE,44,8.0,10.0,76,0.00,,,0.00,Wunderground v.1.13,2013-03-10 22:00:00,
2013-03-10 17:03:00,30.7,24.0,29.91,NW,314,8.0,10.0,76,0.00,,,0.00,Wunderground v.1.13,2013-03-10 22:03:00,
2013-03-10 17:04:00,30.7,24.0,29.91,NNW,343,8.0,11.0,76,0.00,,,0.00,Wunderground v.1.13,2013-03-10 22:04:00,
2013-03-10 17:05:00,30.7,24.0,29.91,NNW,346,8.0,10.0,76,0.00,,,0.00,Wunderground v.1.13,2013-03-10 22:05:00,
2013-03-10 17:09:00,30.6,23.9,29.91,North,5,8.0,10.0,76,0.00,,,0.00,Wunderground v.1.13,2013-03-10 22:09:00,
2013-03-10 17:10:00,30.6,23.9,29.91,NNE,25,9.0,9.0,76,0.00,,,0.00,Wunderground v.1.13,2013-03-10 22:10:00,
2013-03-10 17:12:00,30.5,23.8,29.91,North,360,9.0,9.0,76,0.00,,,0.00,Wunderground v.1.13,2013-03-10 22:12:00,
2013-03-10 17:16:00,30.5,23.8,29.91,NNE,28,9.0,9.0,76,0.00,,,0.00,Wunderground v.1.13,2013-03-10 22:16:00,
2013-03-10 17:17:00,30.5,23.8,29.91,North,360,9.0,9.0,76,0.00,,,0.00,Wunderground v.1.13,2013-03-10 22:17:00,
2013-03-10 17:18:00,30.5,23.8,29.91,North,9,9.0,9.0,76,0.00,,,0.00,Wunderground v.1.13,2013-03-10 22:18:00,
2013-03-10 17:19:00,30.5,23.8,29.91,NNE,29,9.0,10.0,76,0.00,,,0.00,Wunderground v.1.13,2013-03-10 22:19:00,
2013-03-10 17:23:00,30.5,23.8,29.91,NW,309,7.0,8.0,76,0.00,,,0.00,Wunderground v.1.13,2013-03-10 22:23:00,
2013-03-10 17:27:00,30.5,23.8,29.91,NNE,24,7.0,12.0,76,0.00,,,0.00,Wunderground v.1.13,2013-03-10 22:27:00,
2013-03-10 17:28:00,30.4,23.7,29.91,North,11,7.0,12.0,76,0.00,,,0.00,Wunderground v.1.13,2013-03-10 22:28:00,
2013-03-10 17:29:00,30.4,23.7,29.91,NW,323,7.0,12.0,76,0.00,,,0.00,Wunderground v.1.13,2013-03-10 22:29:00,
2013-03-10 17:31:00,30.4,23.7,29.91,NNW,335,7.0,11.0,76,0.00,,,0.00,Wunderground v.1.13,2013-03-10 22:31:00,
2013-03-10 17:32:00,30.4,23.7,29.92,NW,315,7.0,11.0,76,0.00,,,0.00,Wunderground v.1.13,2013-03-10 22:32:00,
2013-03-10 17:34:00,30.4,23.7,29.92,North,11,8.0,11.0,76,0.00,,,0.00,Wunderground v.1.13,2013-03-10 22:34:00,
2013-03-10 17:35:00,30.4,23.7,29.92,NNE,14,8.0,15.0,76,0.00,,,0.00,Wunderground v.1.13,2013-03-10 22:35:00,
2013-03-10 17:40:00,30.3,23.6,29.92,North,11,8.0,10.0,76,0.00,,,0.00,Wunderground v.1.13,2013-03-10 22:40:00,
2013-03-10 17:41:00,30.3,23.6,29.93,NNE,19,9.0,10.0,76,0.00,,,0.00,Wunderground v.1.13,2013-03-10 22:41:00,
2013-03-10 17:46:00,30.3,23.6,29.92,North,5,8.0,18.0,76,0.00,,,0.00,Wunderground v.1.13,2013-03-10 22:46:00,
2013-03-10 17:47:00,30.3,23.6,29.92,NNE,13,9.0,18.0,76,0.00,,,0.00,Wunderground v.1.13,2013-03-10 22:47:00,
2013-03-10 17:50:00,30.2,23.5,29.91,NNW,341,9.0,9.0,76,0.00,,,0.00,Wunderground v.1.13,2013-03-10 22:50:00,
2013-03-10 17:52:00,30.2,23.5,29.91,NNW,342,8.0,9.0,76,0.00,,,0.00,Wunderground v.1.13,2013-03-10 22:52:00,
2013-03-10 17:53:00,30.2,23.5,29.91,North,9,9.0,9.0,76,0.00,,,0.00,Wunderground v.1.13,2013-03-10 22:53:00,
2013-03-10 17:55:00,30.2,23.5,29.91,North,9,9.0,9.0,76,0.00,,,0.00,Wunderground v.1.13,2013-03-10 22:55:00,
2013-03-10 17:59:00,30.1,23.4,29.91,NNE,26,9.0,10.0,76,0.00,,,0.00,Wunderground v.1.13,2013-03-10 22:59:00,
2013-03-10 18:02:00,30.1,23.4,29.91,NNE,33,8.0,9.0,76,0.00,,,0.00,Wunderground v.1.13,2013-03-10 23:02:00,
2013-03-10 18:03:00,30.1,23.4,29.91,North,360,8.0,11.0,76,0.00,,,0.00,Wunderground v.1.13,2013-03-10 23:03:00,
2013-03-10 18:07:00,30.0,23.4,29.91,North,360,9.0,9.0,76,0.00,,,0.00,Wunderground v.1.13,2013-03-10 23:07:00,
2013-03-10 18:08:00,30.1,23.4,29.91,North,5,9.0,10.0,76,0.00,,,0.00,Wunderground v.1.13,2013-03-10 23:08:00,
2013-03-10 18:09:00,30.0,23.4,29.91,North,10,9.0,13.0,76,0.00,,,0.00,Wunderground v.1.13,2013-03-10 23:09:00,
2013-03-10 18:12:00,30.0,23.4,29.91,North,9,10.0,10.0,76,0.00,,,0.00,Wunderground v.1.13,2013-03-10 23:12:00,
2013-03-10 18:13:00,30.0,23.0,29.91,NNE,29,11.0,11.0,75,0.00,,,0.00,Wunderground v.1.13,2013-03-10 23:13:00,
2013-03-10 18:18:00,30.0,23.4,29.91,NNW,327,10.0,10.0,76,0.00,,,0.00,Wunderground v.1.13,2013-03-10 23:18:00,
2013-03-10 18:19:00,30.0,23.4,29.91,North,5,10.0,10.0,76,0.00,,,0.00,Wunderground v.1.13,2013-03-10 23:19:00,
2013-03-10 18:22:00,30.0,23.0,29.91,North,355,8.0,10.0,75,0.00,,,0.00,Wunderground v.1.13,2013-03-10 23:22:00,
2013-03-10 18:24:00,30.0,23.4,29.91,NW,304,8.0,13.0,76,0.00,,,0.00,Wunderground v.1.13,2013-03-10 23:24:00,
2013-03-10 18:26:00,29.9,22.9,29.91,NNW,336,8.0,8.0,75,0.00,,,0.00,Wunderground v.1.13,2013-03-10 23:26:00,
2013-03-10 18:27:00,29.9,22.9,29.91,NNW,346,8.0,10.0,75,0.00,,,0.00,Wunderground v.1.13,2013-03-10 23:27:00,
2013-03-10 18:31:00,29.8,22.8,29.91,North,355,9.0,14.0,75,0.00,,,0.00,Wunderground v.1.13,2013-03-10 23:31:00,
2013-03-10 18:32:00,29.8,22.8,29.91,NNE,13,9.0,14.0,75,0.00,,,0.00,Wunderground v.1.13,2013-03-10 23:32:00,
2013-03-10 18:33:00,29.8,23.2,29.91,NNE,13,9.0,14.0,76,0.00,,,0.00,Wunderground v.1.13,2013-03-10 23:33:00,
2013-03-10 18:36:00,29.8,23.2,29.91,North,9,9.0,10.0,76,0.00,,,0.00,Wunderground v.1.13,2013-03-10 23:36:00,
2013-03-10 18:37:00,29.8,23.2,29.91,North,360,9.0,10.0,76,0.00,,,0.00,Wunderground v.1.13,2013-03-10 23:37:00,
2013-03-10 18:42:00,29.7,23.1,29.90,North,5,8.0,16.0,76,0.00,,,0.00,Wunderground v.1.13,2013-03-10 23:42:00,
2013-03-10 18:44:00,29.7,23.1,29.91,NW,313,8.0,16.0,76,0.00,,,0.00,Wunderground v.1.13,2013-03-10 23:44:00,
2013-03-10 18:47:00,29.6,23.0,29.91,NE,34,9.0,9.0,76,0.00,,,0.00,Wunderground v.1.13,2013-03-10 23:47:00,
2013-03-10 18:49:00,29.6,23.0,29.90,North,360,9.0,9.0,76,0.00,,,0.00,Wunderground v.1.13,2013-03-10 23:49:00,
2013-03-10 18:54:00,29.5,23.2,29.91,North,355,9.0,10.0,77,0.00,,,0.00,Wunderground v.1.13,2013-03-10 23:54:00,
2013-03-10 18:55:00,29.5,23.2,29.91,NNE,15,9.0,10.0,77,0.00,,,0.00,Wunderground v.1.13,2013-03-10 23:55:00,
2013-03-10 18:58:00,29.4,23.1,29.91,North,5,8.0,14.0,77,0.00,,,0.00,Wunderground v.1.13,2013-03-10 23:58:00,
2013-03-10 19:00:00,29.4,23.1,29.91,NE,40,9.0,9.0,77,0.00,,,0.00,Wunderground v.1.13,2013-03-11 00:00:00,
2013-03-10 19:02:00,29.3,23.0,29.91,NNE,28,9.0,9.0,77,0.00,,,0.00,Wunderground v.1.13,2013-03-11 00:02:00,
2013-03-10 19:06:00,29.3,23.0,29.91,North,11,9.0,12.0,77,0.00,,,0.00,Wunderground v.1.13,2013-03-11 00:06:00,
2013-03-10 19:07:00,29.3,23.0,29.91,NNE,19,9.0,14.0,77,0.00,,,0.00,Wunderground v.1.13,2013-03-11 00:07:00,
2013-03-10 19:08:00,29.3,23.0,29.91,North,355,9.0,14.0,77,0.00,,,0.00,Wunderground v.1.13,2013-03-11 00:08:00,
2013-03-10 19:13:00,29.2,22.9,29.91,NNE,17,8.0,12.0,77,0.00,,,0.00,Wunderground v.1.13,2013-03-11 00:13:00,
2013-03-10 19:14:00,29.2,22.9,29.91,WNW,288,8.0,12.0,77,0.00,,,0.00,Wunderground v.1.13,2013-03-11 00:14:00,
2013-03-10 19:17:00,29.2,22.6,29.91,NNE,19,7.0,13.0,76,0.00,,,0.00,Wunderground v.1.13,2013-03-11 00:17:00,
2013-03-10 19:19:00,29.2,22.6,29.91,NNE,18,8.0,13.0,76,0.00,,,0.00,Wunderground v.1.13,2013-03-11 00:19:00,
2013-03-10 19:20:00,29.1,22.5,29.91,NE,42,8.0,8.0,76,0.00,,,0.00,Wunderground v.1.13,2013-03-11 00:20:00,
2013-03-10 19:22:00,29.1,22.5,29.91,North,355,8.0,9.0,76,0.00,,,0.00,Wunderground v.1.13,2013-03-11 00:22:00,
2013-03-10 19:24:00,29.1,22.5,29.91,NNE,18,8.0,9.0,76,0.00,,,0.00,Wunderground v.1.13,2013-03-11 00:24:00,
2013-03-10 19:25:00,29.1,22.5,29.91,North,360,8.0,8.0,76,0.00,,,0.00,Wunderground v.1.13,2013-03-11 00:25:00,
2013-03-10 19:28:00,29.1,22.5,29.92,NNE,29,8.0,11.0,76,0.00,,,0.00,Wunderground v.1.13,2013-03-11 00:28:00,
2013-03-10 19:30:00,29.1,22.5,29.92,NNW,328,7.0,7.0,76,0.00,,,0.00,Wunderground v.1.13,2013-03-11 00:30:00,
2013-03-10 19:32:00,29.0,22.4,29.92,NNE,30,7.0,7.0,76,0.00,,,0.00,Wunderground v.1.13,2013-03-11 00:32:00,
2013-03-10 19:37:00,29.0,22.4,29.92,North,10,7.0,9.0,76,0.00,,,0.00,Wunderground v.1.13,2013-03-11 00:37:00,
2013-03-10 19:38:00,29.0,22.4,29.92,NW,314,7.0,9.0,76,0.00,,,0.00,Wunderground v.1.13,2013-03-11 00:38:00,
2013-03-10 19:43:00,28.9,22.3,29.92,NNE,19,7.0,8.0,76,0.00,,,0.00,Wunderground v.1.13,2013-03-11 00:43:00,
2013-03-10 19:47:00,28.8,22.2,29.92,NNE,22,7.0,8.0,76,0.00,,,0.00,Wunderground v.1.13,2013-03-11 00:47:00,
2013-03-10 19:48:00,28.8,22.2,29.92,NNW,339,7.0,8.0,76,0.00,,,0.00,Wunderground v.1.13,2013-03-11 00:48:00,
2013-03-10 19:52:00,28.8,22.5,29.92,NNE,22,7.0,7.0,77,0.00,,,0.00,Wunderground v.1.13,2013-03-11 00:52:00,
2013-03-10 19:53:00,28.7,22.4,29.92,North,5,7.0,7.0,77,0.00,,,0.00,Wunderground v.1.13,2013-03-11 00:53:00,
2013-03-10 19:54:00,28.7,22.4,29.92,NNW,341,7.0,7.0,77,0.00,,,0.00,Wunderground v.1.13,2013-03-11 00:54:00,
2013-03-10 19:58:00,28.7,22.4,29.92,NE,36,7.0,9.0,77,0.00,,,0.00,Wunderground v.1.13,2013-03-11 00:58:00,
2013-03-10 19:59:00,28.7,22.4,29.92,North,360,7.0,9.0,77,0.00,,,0.00,Wunderground v.1.13,2013-03-11 00:59:00,
2013-03-10 20:02:00,28.6,22.6,29.92,NNW,331,6.0,7.0,78,0.00,,,0.00,Wunderground v.1.13,2013-03-11 01:02:00,
2013-03-10 20:05:00,28.6,22.6,29.92,NW,306,6.0,7.0,78,0.00,,,0.00,Wunderground v.1.13,2013-03-11 01:05:00,
2013-03-10 20:07:00,28.6,22.6,29.92,North,349,6.0,7.0,78,0.00,,,0.00,Wunderground v.1.13,2013-03-11 01:07:00,
2013-03-10 20:10:00,28.6,22.6,29.92,NNW,337,6.0,8.0,78,0.00,,,0.00,Wunderground v.1.13,2013-03-11 01:10:00,
2013-03-10 20:11:00,28.6,22.6,29.92,North,360,6.0,8.0,78,0.00,,,0.00,Wunderground v.1.13,2013-03-11 01:11:00,
2013-03-10 20:15:00,28.5,22.5,29.92,North,355,7.0,7.0,78,0.00,,,0.00,Wunderground v.1.13,2013-03-11 01:15:00,
2013-03-10 20:18:00,28.5,22.5,29.92,NNE,18,6.0,11.0,78,0.00,,,0.00,Wunderground v.1.13,2013-03-11 01:18:00,
2013-03-10 20:20:00,28.5,22.5,29.92,North,360,7.0,7.0,78,0.00,,,0.00,Wunderground v.1.13,2013-03-11 01:20:00,
2013-03-10 20:25:00,28.5,22.5,29.93,NNW,345,6.0,6.0,78,0.00,,,0.00,Wunderground v.1.13,2013-03-11 01:25:00,
2013-03-10 20:27:00,28.5,22.5,29.93,NNE,17,7.0,11.0,78,0.00,,,0.00,Wunderground v.1.13,2013-03-11 01:27:00,
2013-03-10 20:33:00,28.4,22.4,29.93,North,9,6.0,7.0,78,0.00,,,0.00,Wunderground v.1.13,2013-03-11 01:33:00,
2013-03-10 20:34:00,28.4,22.4,29.93,NNE,13,6.0,8.0,78,0.00,,,0.00,Wunderground v.1.13,2013-03-11 01:34:00,
2013-03-10 20:35:00,28.4,22.4,29.93,NNW,338,6.0,6.0,78,0.00,,,0.00,Wunderground v.1.13,2013-03-11 01:35:00,
2013-03-10 20:40:00,28.4,22.4,29.93,North,355,6.0,6.0,78,0.00,,,0.00,Wunderground v.1.13,2013-03-11 01:40:00,
2013-03-10 20:41:00,28.4,22.4,29.93,NNE,19,6.0,10.0,78,0.00,,,0.00,Wunderground v.1.13,2013-03-11 01:41:00,
2013-03-10 20:42:00,28.4,22.4,29.93,WNW,300,6.0,10.0,78,0.00,,,0.00,Wunderground v.1.13,2013-03-11 01:42:00,
2013-03-10 20:43:00,28.4,22.4,29.93,North,5,6.0,10.0,78,0.00,,,0.00,Wunderground v.1.13,2013-03-11 01:43:00,
2013-03-10 20:47:00,28.4,22.4,29.93,North,355,7.0,7.0,78,0.00,,,0.00,Wunderground v.1.13,2013-03-11 01:47:00,
2013-03-10 20:52:00,28.3,22.3,29.93,North,11,6.0,9.0,78,0.00,,,0.00,Wunderground v.1.13,2013-03-11 01:52:00,
2013-03-10 20:53:00,28.3,22.3,29.93,NNE,17,7.0,9.0,78,0.00,,,0.00,Wunderground v.1.13,2013-03-11 01:53:00,
2013-03-10 20:55:00,28.3,22.3,29.93,North,9,6.0,7.0,78,0.00,,,0.00,Wunderground v.1.13,2013-03-11 01:55:00,
2013-03-10 21:00:00,28.3,22.3,29.93,ENE,58,6.0,6.0,78,0.00,,,0.00,Wunderground v.1.13,2013-03-11 02:00:00,
2013-03-10 21:02:00,28.3,22.3,29.93,North,11,6.0,8.0,78,0.00,,,0.00,Wunderground v.1.13,2013-03-11 02:02:00,
2013-03-10 21:03:00,28.2,22.2,29.93,NNW,348,6.0,8.0,78,0.00,,,0.00,Wunderground v.1.13,2013-03-11 02:03:00,
2013-03-10 21:06:00,28.3,22.3,29.93,North,360,6.0,12.0,78,0.00,,,0.00,Wunderground v.1.13,2013-03-11 02:06:00,
2013-03-10 21:09:00,28.3,22.3,29.93,NNE,28,7.0,12.0,78,0.00,,,0.00,Wunderground v.1.13,2013-03-11 02:09:00,
2013-03-10 21:11:00,28.3,22.0,29.93,North,11,8.0,15.0,77,0.00,,,0.00,Wunderground v.1.13,2013-03-11 02:11:00,
2013-03-10 21:13:00,28.3,22.0,29.93,NE,42,8.0,15.0,77,0.00,,,0.00,Wunderground v.1.13,2013-03-11 02:13:00,
2013-03-10 21:17:00,28.3,22.0,29.93,North,11,9.0,9.0,77,0.00,,,0.00,Wunderground v.1.13,2013-03-11 02:17:00,
2013-03-10 21:18:00,28.2,21.9,29.93,NNE,20,9.0,20.0,77,0.00,,,0.00,Wunderground v.1.13,2013-03-11 02:18:00,
2013-03-10 21:20:00,28.2,21.9,29.93,North,351,9.0,9.0,77,0.00,,,0.00,Wunderground v.1.13,2013-03-11 02:20:00,
2013-03-10 21:22:00,28.2,21.9,29.93,North,360,8.0,9.0,77,0.00,,,0.00,Wunderground v.1.13,2013-03-11 02:22:00,
2013-03-10 21:23:00,28.2,21.9,29.93,WNW,303,8.0,9.0,77,0.00,,,0.00,Wunderground v.1.13,2013-03-11 02:23:00,
2013-03-10 21:24:00,28.2,21.9,29.93,North,355,8.0,9.0,77,0.00,,,0.00,Wunderground v.1.13,2013-03-11 02:24:00,
2013-03-10 21:26:00,28.2,21.9,29.93,NNE,22,8.0,11.0,77,0.00,,,0.00,Wunderground v.1.13,2013-03-11 02:26:00,
2013-03-10 21:30:00,28.2,21.9,29.93,NNE,19,8.0,9.0,77,0.00,,,0.00,Wunderground v.1.13,2013-03-11 02:30:00,
2013-03-10 21:34:00,28.2,21.9,29.93,NW,307,9.0,11.0,77,0.00,,,0.00,Wunderground v.1.13,2013-03-11 02:34:00,
2013-03-10 21:39:00,28.1,21.8,29.93,NNE,22,9.0,12.0,77,0.00,,,0.00,Wunderground v.1.13,2013-03-11 02:39:00,
2013-03-10 21:42:00,28.1,21.8,29.93,NNE,30,8.0,12.0,77,0.00,,,0.00,Wunderground v.1.13,2013-03-11 02:42:00,
2013-03-10 21:45:00,28.1,21.8,29.93,NNE,27,8.0,8.0,77,0.00,,,0.00,Wunderground v.1.13,2013-03-11 02:45:00,
2013-03-10 21:46:00,28.1,21.8,29.93,NW,325,8.0,8.0,77,0.00,,,0.00,Wunderground v.1.13,2013-03-11 02:46:00,
2013-03-10 21:48:00,28.1,21.8,29.94,NNE,21,8.0,13.0,77,0.00,,,0.00,Wunderground v.1.13,2013-03-11 02:48:00,
2013-03-10 21:50:00,28.0,21.7,29.93,NNE,15,8.0,8.0,77,0.00,,,0.00,Wunderground v.1.13,2013-03-11 02:50:00,
2013-03-10 21:52:00,28.0,21.7,29.94,NNE,16,8.0,10.0,77,0.00,,,0.00,Wunderground v.1.13,2013-03-11 02:52:00,
2013-03-10 21:55:00,28.0,21.7,29.94,NW,311,7.0,7.0,77,0.00,,,0.00,Wunderground v.1.13,2013-03-11 02:55:00,
2013-03-10 21:57:00,28.0,21.7,29.94,North,11,8.0,9.0,77,0.00,,,0.00,Wunderground v.1.13,2013-03-11 02:57:00,
2013-03-10 22:00:00,28.0,21.7,29.93,North,5,8.0,8.0,77,0.00,,,0.00,Wunderground v.1.13,2013-03-11 03:00:00,
2013-03-10 22:02:00,28.0,21.7,29.94,NW,319,8.0,8.0,77,0.00,,,0.00,Wunderground v.1.13,2013-03-11 03:02:00,
2013-03-10 22:04:00,28.0,21.7,29.94,NE,40,9.0,12.0,77,0.00,,,0.00,Wunderground v.1.13,2013-03-11 03:04:00,
2013-03-10 22:09:00,27.9,21.6,29.94,NNW,343,8.0,9.0,77,0.00,,,0.00,Wunderground v.1.13,2013-03-11 03:09:00,
2013-03-10 22:10:00,27.9,21.6,29.94,NNW,339,8.0,8.0,77,0.00,,,0.00,Wunderground v.1.13,2013-03-11 03:10:00,
2013-03-10 22:13:00,27.9,21.6,29.94,North,360,7.0,9.0,77,0.00,,,0.00,Wunderground v.1.13,2013-03-11 03:13:00,
2013-03-10 22:15:00,27.9,21.6,29.94,NNE,17,7.0,7.0,77,0.00,,,0.00,Wunderground v.1.13,2013-03-11 03:15:00,
2013-03-10 22:17:00,27.9,21.6,29.94,NNW,344,7.0,7.0,77,0.00,,,0.00,Wunderground v.1.13,2013-03-11 03:17:00,
2013-03-10 22:19:00,27.9,21.6,29.94,North,9,6.0,9.0,77,0.00,,,0.00,Wunderground v.1.13,2013-03-11 03:19:00,
2013-03-10 22:21:00,27.8,21.5,29.94,NE,38,7.0,9.0,77,0.00,,,0.00,Wunderground v.1.13,2013-03-11 03:21:00,
2013-03-10 22:22:00,27.9,21.6,29.94,North,10,7.0,9.0,77,0.00,,,0.00,Wunderground v.1.13,2013-03-11 03:22:00,
2013-03-10 22:25:00,27.8,21.5,29.94,NNE,19,7.0,7.0,77,0.00,,,0.00,Wunderground v.1.13,2013-03-11 03:25:00,
2013-03-10 22:26:00,27.8,21.5,29.94,NE,35,7.0,8.0,77,0.00,,,0.00,Wunderground v.1.13,2013-03-11 03:26:00,
2013-03-10 22:28:00,27.8,21.5,29.94,NNE,20,7.0,10.0,77,0.00,,,0.00,Wunderground v.1.13,2013-03-11 03:28:00,
2013-03-10 22:30:00,27.8,21.5,29.94,NNW,347,6.0,6.0,77,0.00,,,0.00,Wunderground v.1.13,2013-03-11 03:30:00,
2013-03-10 22:31:00,27.8,21.5,29.93,NNE,23,6.0,7.0,77,0.00,,,0.00,Wunderground v.1.13,2013-03-11 03:31:00,
2013-03-10 22:36:00,27.8,21.5,29.93,NNE,19,5.0,6.0,77,0.00,,,0.00,Wunderground v.1.13,2013-03-11 03:36:00,
2013-03-10 22:37:00,27.8,21.5,29.93,NNE,14,5.0,10.0,77,0.00,,,0.00,Wunderground v.1.13,2013-03-11 03:37:00,
2013-03-10 22:38:00,27.8,21.5,29.93,NNE,14,5.0,12.0,77,0.00,,,0.00,Wunderground v.1.13,2013-03-11 03:38:00,
2013-03-10 22:39:00,27.8,21.5,29.93,NNE,25,6.0,12.0,77,0.00,,,0.00,Wunderground v.1.13,2013-03-11 03:39:00,
2013-03-10 22:43:00,27.7,21.4,29.93,NNE,17,6.0,9.0,77,0.00,,,0.00,Wunderground v.1.13,2013-03-11 03:43:00,
2013-03-10 22:44:00,27.7,21.4,29.93,NNE,18,6.0,9.0,77,0.00,,,0.00,Wunderground v.1.13,2013-03-11 03:44:00,
2013-03-10 22:45:00,27.7,21.4,29.93,NE,41,6.0,7.0,77,0.00,,,0.00,Wunderground v.1.13,2013-03-11 03:45:00,
2013-03-10 22:48:00,27.7,21.4,29.93,NNE,15,7.0,8.0,77,0.00,,,0.00,Wunderground v.1.13,2013-03-11 03:48:00,
2013-03-10 22:50:00,27.7,21.4,29.93,NNE,24,6.0,7.0,77,0.00,,,0.00,Wunderground v.1.13,2013-03-11 03:50:00,
2013-03-10 22:51:00,27.7,21.4,29.92,NW,322,6.0,7.0,77,0.00,,,0.00,Wunderground v.1.13,2013-03-11 03:51:00,
2013-03-10 22:53:00,27.7,21.1,29.92,North,5,7.0,7.0,76,0.00,,,0.00,Wunderground v.1.13,2013-03-11 03:53:00,
2013-03-10 22:55:00,27.7,21.1,29.92,North,11,7.0,8.0,76,0.00,,,0.00,Wunderground v.1.13,2013-03-11 03:55:00,
2013-03-10 22:57:00,27.7,21.1,29.92,NNE,15,7.0,11.0,76,0.00,,,0.00,Wunderground v.1.13,2013-03-11 03:57:00,
2013-03-10 22:59:00,27.7,21.1,29.92,NNE,18,7.0,11.0,76,0.00,,,0.00,Wunderground v.1.13,2013-03-11 03:59:00,
2013-03-10 23:00:00,27.7,21.1,29.92,NNE,24,7.0,8.0,76,0.00,,,0.00,Wunderground v.1.13,2013-03-11 04:00:00,
2013-03-10 23:02:00,27.6,21.0,29.92,North,360,7.0,8.0,76,0.00,,,0.00,Wunderground v.1.13,2013-03-11 04:02:00,
2013-03-10 23:04:00,27.6,21.0,29.92,NW,325,7.0,8.0,76,0.00,,,0.00,Wunderground v.1.13,2013-03-11 04:04:00,
2013-03-10 23:05:00,27.6,21.0,29.92,North,9,7.0,7.0,76,0.00,,,0.00,Wunderground v.1.13,2013-03-11 04:05:00,
2013-03-10 23:08:00,27.6,21.0,29.91,NNE,22,6.0,8.0,76,0.00,,,0.00,Wunderground v.1.13,2013-03-11 04:08:00,
2013-03-10 23:10:00,27.6,21.0,29.91,NNE,20,6.0,7.0,76,0.00,,,0.00,Wunderground v.1.13,2013-03-11 04:10:00,
2013-03-10 23:12:00,27.6,21.3,29.91,North,11,6.0,7.0,77,0.00,,,0.00,Wunderground v.1.13,2013-03-11 04:12:00,
2013-03-10 23:15:00,27.5,21.2,29.91,NNE,13,6.0,8.0,77,0.00,,,0.00,Wunderground v.1.13,2013-03-11 04:15:00,
2013-03-10 23:16:00,27.5,21.2,29.91,NNE,17,6.0,8.0,77,0.00,,,0.00,Wunderground v.1.13,2013-03-11 04:16:00,
2013-03-10 23:19:00,27.5,21.2,29.91,North,10,6.0,8.0,77,0.00,,,0.00,Wunderground v.1.13,2013-03-11 04:19:00,
2013-03-10 23:20:00,27.5,21.2,29.91,NNE,13,6.0,8.0,77,0.00,,,0.00,Wunderground v.1.13,2013-03-11 04:20:00,
2013-03-10 23:22:00,27.5,21.2,29.91,North,11,6.0,8.0,77,0.00,,,0.00,Wunderground v.1.13,2013-03-11 04:22:00,
2013-03-10 23:25:00,27.5,21.2,29.91,North,355,7.0,8.0,77,0.00,,,0.00,Wunderground v.1.13,2013-03-11 04:25:00,
2013-03-10 23:27:00,27.5,21.2,29.91,NNE,18,7.0,12.0,77,0.00,,,0.00,Wunderground v.1.13,2013-03-11 04:27:00,
2013-03-10 23:30:00,27.4,21.1,29.90,North,5,7.0,9.0,77,0.00,,,0.00,Wunderground v.1.13,2013-03-11 04:30:00,
2013-03-10 23:33:00,27.4,21.1,29.90,NNE,24,7.0,9.0,77,0.00,,,0.00,Wunderground v.1.13,2013-03-11 04:33:00,
2013-03-10 23:34:00,27.4,21.1,29.90,NNE,29,7.0,9.0,77,0.00,,,0.00,Wunderground v.1.13,2013-03-11 04:34:00,
2013-03-10 23:39:00,27.4,21.1,29.90,NNE,22,6.0,8.0,77,0.00,,,0.00,Wunderground v.1.13,2013-03-11 04:39:00,
2013-03-10 23:41:00,27.4,21.1,29.90,NNW,348,5.0,7.0,77,0.00,,,0.00,Wunderground v.1.13,2013-03-11 04:41:00,
2013-03-10 23:42:00,27.4,21.1,29.90,NNE,19,5.0,7.0,77,0.00,,,0.00,Wunderground v.1.13,2013-03-11 04:42:00,
2013-03-10 23:43:00,27.3,21.0,29.90,NNE,14,5.0,7.0,77,0.00,,,0.00,Wunderground v.1.13,2013-03-11 04:43:00,
2013-03-10 23:47:00,27.3,21.0,29.89,WNW,286,5.0,6.0,77,0.00,,,0.00,Wunderground v.1.13,2013-03-11 04:47:00,
2013-03-10 23:48:00,27.3,21.0,29.89,North,10,6.0,8.0,77,0.00,,,0.00,Wunderground v.1.13,2013-03-11 04:48:00,
2013-03-10 23:49:00,27.3,21.0,29.89,North,10,6.0,8.0,77,0.00,,,0.00,Wunderground v.1.13,2013-03-11 04:49:00,
2013-03-10 23:53:00,27.2,20.6,29.89,North,11,7.0,9.0,76,0.00,,,0.00,Wunderground v.1.13,2013-03-11 04:53:00,
2013-03-10 23:55:00,27.2,20.6,29.89,North,360,7.0,7.0,76,0.00,,,0.00,Wunderground v.1.13,2013-03-11 04:55:00,